Time,TemperatureF,DewpointF,PressureIn,WindDirection,WindDirectionDegrees,WindSpeedMPH,WindSpeedGustMPH,Humidity,HourlyPrecipIn,Conditions,Clouds,dailyrainin,SoftwareType,DateUTC
2013-05-03 00:00:00,58.8,55.9,30.28,SW,235,4.0,4.0,90,0.00,,,0.02,Wunderground v.1.15,2013-05-03 04:00:00,
2013-05-03 00:01:00,58.8,55.9,30.28,WSW,250,4.0,17.0,90,0.00,,,0.02,Wunderground v.1.15,2013-05-03 04:01:00,
2013-05-03 00:02:00,58.8,55.9,30.28,SW,221,4.0,17.0,90,0.00,,,0.02,Wunderground v.1.15,2013-05-03 04:02:00,
2013-05-03 00:03:00,58.8,55.9,30.28,WSW,245,4.0,17.0,90,0.00,,,0.02,Wunderground v.1.15,2013-05-03 04:03:00,
2013-05-03 00:06:00,58.7,55.8,30.28,SW,233,4.0,17.0,90,0.00,,,0.02,Wunderground v.1.15,2013-05-03 04:06:00,
2013-05-03 00:07:00,58.7,55.8,30.27,West,262,3.0,17.0,90,0.00,,,0.02,Wunderground v.1.15,2013-05-03 04:07:00,
2013-05-03 00:10:00,58.6,56.0,30.27,SW,236,3.0,3.0,91,0.00,,,0.02,Wunderground v.1.15,2013-05-03 04:10:00,
2013-05-03 00:11:00,58.6,56.0,30.27,SW,227,4.0,7.0,91,0.00,,,0.02,Wunderground v.1.15,2013-05-03 04:11:00,
2013-05-03 00:13:00,58.5,55.9,30.27,SW,215,4.0,17.0,91,0.00,,,0.02,Wunderground v.1.15,2013-05-03 04:13:00,
2013-05-03 00:16:00,58.4,55.8,30.27,WSW,245,4.0,17.0,91,0.00,,,0.02,Wunderground v.1.15,2013-05-03 04:16:00,
2013-05-03 00:18:00,58.3,56.0,30.27,SSW,205,4.0,17.0,92,0.00,,,0.02,Wunderground v.1.15,2013-05-03 04:18:00,
2013-05-03 00:22:00,58.1,55.8,30.27,WSW,242,4.0,17.0,92,0.00,,,0.02,Wunderground v.1.15,2013-05-03 04:22:00,
2013-05-03 00:23:00,58.1,56.1,30.27,South,181,3.0,17.0,93,0.00,,,0.02,Wunderground v.1.15,2013-05-03 04:23:00,
2013-05-03 00:25:00,58.0,56.0,30.27,NW,315,3.0,17.0,93,0.00,,,0.02,Wunderground v.1.15,2013-05-03 04:25:00,
2013-05-03 00:29:00,57.8,55.8,30.27,West,269,3.0,17.0,93,0.00,,,0.02,Wunderground v.1.15,2013-05-03 04:29:00,
2013-05-03 00:32:00,57.7,56.0,30.27,WSW,256,3.0,17.0,94,0.00,,,0.02,Wunderground v.1.15,2013-05-03 04:32:00,
2013-05-03 00:33:00,57.7,56.0,30.27,SW,229,3.0,17.0,94,0.00,,,0.02,Wunderground v.1.15,2013-05-03 04:33:00,
2013-05-03 00:34:00,57.6,55.9,30.27,SSE,156,3.0,17.0,94,0.00,,,0.02,Wunderground v.1.15,2013-05-03 04:34:00,
2013-05-03 00:37:00,57.6,55.9,30.27,West,259,3.0,17.0,94,0.00,,,0.02,Wunderground v.1.15,2013-05-03 04:37:00,
2013-05-03 00:38:00,57.6,55.9,30.27,WSW,240,3.0,17.0,94,0.00,,,0.02,Wunderground v.1.15,2013-05-03 04:38:00,
2013-05-03 00:39:00,57.5,55.8,30.27,West,269,2.0,2.0,94,0.00,,,0.02,Wunderground v.1.15,2013-05-03 04:39:00,
2013-05-03 00:41:00,57.5,55.8,30.27,SW,221,2.0,3.0,94,0.00,,,0.02,Wunderground v.1.15,2013-05-03 04:41:00,
2013-05-03 00:42:00,57.5,55.8,30.27,SSE,166,2.0,17.0,94,0.00,,,0.02,Wunderground v.1.15,2013-05-03 04:42:00,
2013-05-03 00:43:00,57.5,55.8,30.26,SW,236,2.0,17.0,94,0.00,,,0.02,Wunderground v.1.15,2013-05-03 04:43:00,
2013-05-03 00:46:00,57.4,56.0,30.26,West,260,2.0,17.0,95,0.00,,,0.02,Wunderground v.1.15,2013-05-03 04:46:00,
2013-05-03 00:48:00,57.4,56.0,30.26,West,259,2.0,17.0,95,0.00,,,0.02,Wunderground v.1.15,2013-05-03 04:48:00,
2013-05-03 00:51:00,57.4,56.0,30.26,WSW,257,3.0,17.0,95,0.00,,,0.02,Wunderground v.1.15,2013-05-03 04:51:00,
2013-05-03 00:53:00,57.4,56.0,30.26,SW,235,3.0,17.0,95,0.00,,,0.02,Wunderground v.1.15,2013-05-03 04:53:00,
2013-05-03 00:55:00,57.4,56.0,30.26,WSW,243,3.0,17.0,95,0.00,,,0.02,Wunderground v.1.15,2013-05-03 04:55:00,
2013-05-03 00:57:00,57.4,56.0,30.26,WSW,238,3.0,17.0,95,0.00,,,0.02,Wunderground v.1.15,2013-05-03 04:57:00,
2013-05-03 00:58:00,57.4,56.0,30.26,SSE,148,4.0,17.0,95,0.00,,,0.02,Wunderground v.1.15,2013-05-03 04:58:00,
2013-05-03 01:00:00,57.4,56.0,30.26,SW,235,3.0,17.0,95,0.00,,,0.02,Wunderground v.1.15,2013-05-03 05:00:00,
2013-05-03 01:01:00,57.4,56.0,30.26,South,188,4.0,17.0,95,0.00,,,0.00,Wunderground v.1.15,2013-05-03 05:01:00,
2013-05-03 01:02:00,57.4,56.0,30.26,SE,136,3.0,17.0,95,0.00,,,0.00,Wunderground v.1.15,2013-05-03 05:02:00,
2013-05-03 01:03:00,57.4,56.0,30.26,SW,235,3.0,17.0,95,0.00,,,0.00,Wunderground v.1.15,2013-05-03 05:03:00,
2013-05-03 01:05:00,57.3,55.9,30.26,West,259,3.0,17.0,95,0.00,,,0.00,Wunderground v.1.15,2013-05-03 05:05:00,
2013-05-03 01:06:00,57.4,56.0,30.26,WSW,248,3.0,17.0,95,0.00,,,0.00,Wunderground v.1.15,2013-05-03 05:06:00,
2013-05-03 01:07:00,57.3,55.9,30.26,SW,232,3.0,17.0,95,0.00,,,0.00,Wunderground v.1.15,2013-05-03 05:07:00,
2013-05-03 01:11:00,57.3,55.9,30.26,SW,225,3.0,17.0,95,0.00,,,0.00,Wunderground v.1.15,2013-05-03 05:11:00,
2013-05-03 01:13:00,57.3,55.9,30.26,SW,221,3.0,17.0,95,0.00,,,0.00,Wunderground v.1.15,2013-05-03 05:13:00,
2013-05-03 01:14:00,57.3,55.9,30.26,SE,124,3.0,17.0,95,0.00,,,0.00,Wunderground v.1.15,2013-05-03 05:14:00,
2013-05-03 01:16:00,57.4,56.0,30.26,WSW,239,3.0,17.0,95,0.00,,,0.00,Wunderground v.1.15,2013-05-03 05:16:00,
2013-05-03 01:18:00,57.3,55.9,30.26,WSW,253,3.0,17.0,95,0.00,,,0.00,Wunderground v.1.15,2013-05-03 05:18:00,
2013-05-03 01:19:00,57.3,55.9,30.26,SW,226,3.0,17.0,95,0.00,,,0.00,Wunderground v.1.15,2013-05-03 05:19:00,
2013-05-03 01:23:00,57.3,55.9,30.25,WSW,250,3.0,17.0,95,0.00,,,0.00,Wunderground v.1.15,2013-05-03 05:23:00,
2013-05-03 01:24:00,57.4,56.0,30.25,WSW,257,3.0,17.0,95,0.00,,,0.00,Wunderground v.1.15,2013-05-03 05:24:00,
2013-05-03 01:26:00,57.4,56.0,30.25,WSW,253,3.0,17.0,95,0.00,,,0.00,Wunderground v.1.15,2013-05-03 05:26:00,
2013-05-03 01:29:00,57.4,56.0,30.25,SSE,158,3.0,3.0,95,0.00,,,0.00,Wunderground v.1.15,2013-05-03 05:29:00,
2013-05-03 01:31:00,57.4,56.0,30.25,SW,215,3.0,17.0,95,0.00,,,0.00,Wunderground v.1.15,2013-05-03 05:31:00,
2013-05-03 01:32:00,57.4,56.0,30.25,SW,218,3.0,17.0,95,0.00,,,0.00,Wunderground v.1.15,2013-05-03 05:32:00,
2013-05-03 01:33:00,57.4,56.0,30.25,SW,215,3.0,17.0,95,0.00,,,0.00,Wunderground v.1.15,2013-05-03 05:33:00,
2013-05-03 01:34:00,57.4,56.0,30.25,SW,231,3.0,17.0,95,0.00,,,0.00,Wunderground v.1.15,2013-05-03 05:34:00,
2013-05-03 01:36:00,57.4,56.0,30.25,SW,229,3.0,17.0,95,0.00,,,0.00,Wunderground v.1.15,2013-05-03 05:36:00,
2013-05-03 01:39:00,57.4,56.0,30.25,SSW,195,3.0,17.0,95,0.00,,,0.00,Wunderground v.1.15,2013-05-03 05:39:00,
2013-05-03 01:43:00,57.4,56.0,30.25,SW,226,3.0,17.0,95,0.00,,,0.00,Wunderground v.1.15,2013-05-03 05:43:00,
2013-05-03 01:45:00,57.4,56.0,30.25,WSW,248,3.0,17.0,95,0.00,,,0.00,Wunderground v.1.15,2013-05-03 05:45:00,
2013-05-03 01:47:00,57.4,56.0,30.25,SW,224,3.0,17.0,95,0.00,,,0.00,Wunderground v.1.15,2013-05-03 05:47:00,
2013-05-03 01:51:00,57.3,55.9,30.24,SSE,150,4.0,17.0,95,0.00,,,0.00,Wunderground v.1.15,2013-05-03 05:51:00,
2013-05-03 01:54:00,57.3,55.9,30.24,WSW,242,4.0,17.0,95,0.00,,,0.00,Wunderground v.1.15,2013-05-03 05:54:00,
2013-05-03 01:56:00,57.3,55.9,30.24,WNW,284,4.0,17.0,95,0.00,,,0.00,Wunderground v.1.15,2013-05-03 05:56:00,
2013-05-03 01:59:00,57.2,55.8,30.24,SW,236,3.0,17.0,95,0.00,,,0.00,Wunderground v.1.15,2013-05-03 05:59:00,
2013-05-03 02:00:00,57.3,55.9,30.24,WSW,238,4.0,17.0,95,0.00,,,0.00,Wunderground v.1.15,2013-05-03 06:00:00,
2013-05-03 02:01:00,57.2,55.8,30.24,WSW,240,4.0,17.0,95,0.00,,,0.00,Wunderground v.1.15,2013-05-03 06:01:00,
2013-05-03 02:04:00,57.2,55.8,30.24,SSW,206,4.0,17.0,95,0.00,,,0.00,Wunderground v.1.15,2013-05-03 06:04:00,
2013-05-03 02:06:00,57.3,55.9,30.24,SE,142,4.0,17.0,95,0.00,,,0.00,Wunderground v.1.15,2013-05-03 06:06:00,
2013-05-03 02:09:00,57.2,55.8,30.24,SSE,156,4.0,4.0,95,0.00,,,0.00,Wunderground v.1.15,2013-05-03 06:09:00,
2013-05-03 02:10:00,57.2,55.8,30.24,SW,215,3.0,7.0,95,0.00,,,0.00,Wunderground v.1.15,2013-05-03 06:10:00,
2013-05-03 02:12:00,57.2,55.8,30.24,WSW,241,3.0,17.0,95,0.00,,,0.00,Wunderground v.1.15,2013-05-03 06:12:00,
2013-05-03 02:13:00,57.2,55.8,30.24,SSW,212,4.0,17.0,95,0.00,,,0.00,Wunderground v.1.15,2013-05-03 06:13:00,
2013-05-03 02:17:00,57.2,55.8,30.24,West,273,4.0,17.0,95,0.00,,,0.00,Wunderground v.1.15,2013-05-03 06:17:00,
2013-05-03 02:20:00,57.2,55.8,30.24,West,276,4.0,17.0,95,0.00,,,0.00,Wunderground v.1.15,2013-05-03 06:20:00,
2013-05-03 02:22:00,57.2,55.8,30.24,SSW,209,3.0,17.0,95,0.00,,,0.00,Wunderground v.1.15,2013-05-03 06:22:00,
2013-05-03 02:23:00,57.2,55.8,30.24,SW,232,3.0,17.0,95,0.00,,,0.00,Wunderground v.1.15,2013-05-03 06:23:00,
2013-05-03 02:24:00,57.2,55.8,30.24,West,267,3.0,17.0,95,0.00,,,0.00,Wunderground v.1.15,2013-05-03 06:24:00,
2013-05-03 02:27:00,57.2,55.8,30.24,West,266,3.0,17.0,95,0.00,,,0.00,Wunderground v.1.15,2013-05-03 06:27:00,
2013-05-03 02:28:00,57.2,55.8,30.24,WSW,256,3.0,17.0,95,0.00,,,0.00,Wunderground v.1.15,2013-05-03 06:28:00,
2013-05-03 02:29:00,57.2,55.8,30.24,WSW,256,3.0,17.0,95,0.00,,,0.00,Wunderground v.1.15,2013-05-03 06:29:00,
2013-05-03 02:32:00,57.2,55.8,30.24,South,176,3.0,17.0,95,0.00,,,0.00,Wunderground v.1.15,2013-05-03 06:32:00,
2013-05-03 02:33:00,57.2,55.8,30.24,SSW,203,4.0,17.0,95,0.00,,,0.00,Wunderground v.1.15,2013-05-03 06:33:00,
2013-05-03 02:34:00,57.2,55.8,30.23,WSW,246,4.0,17.0,95,0.00,,,0.00,Wunderground v.1.15,2013-05-03 06:34:00,
2013-05-03 02:36:00,57.2,55.8,30.24,SE,136,3.0,17.0,95,0.00,,,0.00,Wunderground v.1.15,2013-05-03 06:36:00,
2013-05-03 02:38:00,57.2,55.8,30.23,SW,229,3.0,17.0,95,0.00,,,0.00,Wunderground v.1.15,2013-05-03 06:38:00,
2013-05-03 02:40:00,57.2,55.8,30.23,SSW,194,3.0,17.0,95,0.00,,,0.00,Wunderground v.1.15,2013-05-03 06:40:00,
2013-05-03 02:41:00,57.2,55.8,30.23,SW,228,3.0,17.0,95,0.00,,,0.00,Wunderground v.1.15,2013-05-03 06:41:00,
2013-05-03 02:42:00,57.2,55.8,30.23,SW,232,3.0,17.0,95,0.00,,,0.00,Wunderground v.1.15,2013-05-03 06:42:00,
2013-05-03 02:44:00,57.2,55.8,30.23,WNW,291,3.0,17.0,95,0.00,,,0.00,Wunderground v.1.15,2013-05-03 06:44:00,
2013-05-03 02:45:00,57.2,55.8,30.23,SSW,197,4.0,17.0,95,0.00,,,0.00,Wunderground v.1.15,2013-05-03 06:45:00,
2013-05-03 02:47:00,57.2,55.8,30.23,West,262,4.0,17.0,95,0.00,,,0.00,Wunderground v.1.15,2013-05-03 06:47:00,
2013-05-03 02:50:00,57.2,55.8,30.22,WSW,255,3.0,17.0,95,0.00,,,0.00,Wunderground v.1.15,2013-05-03 06:50:00,
2013-05-03 02:51:00,57.2,55.8,30.22,SW,226,3.0,17.0,95,0.00,,,0.00,Wunderground v.1.15,2013-05-03 06:51:00,
2013-05-03 02:53:00,57.2,55.8,30.22,SW,226,3.0,17.0,95,0.00,,,0.00,Wunderground v.1.15,2013-05-03 06:53:00,
2013-05-03 02:55:00,57.2,55.8,30.22,WSW,256,3.0,17.0,95,0.00,,,0.00,Wunderground v.1.15,2013-05-03 06:55:00,
2013-05-03 02:56:00,57.2,55.8,30.22,ESE,122,3.0,17.0,95,0.00,,,0.00,Wunderground v.1.15,2013-05-03 06:56:00,
2013-05-03 02:59:00,57.2,55.8,30.22,West,269,3.0,17.0,95,0.00,,,0.00,Wunderground v.1.15,2013-05-03 06:59:00,
2013-05-03 03:02:00,57.1,55.7,30.22,SSW,201,3.0,17.0,95,0.00,,,0.00,Wunderground v.1.15,2013-05-03 07:02:00,
2013-05-03 03:03:00,57.1,55.7,30.22,SSW,212,3.0,17.0,95,0.00,,,0.00,Wunderground v.1.15,2013-05-03 07:03:00,
2013-05-03 03:04:00,57.1,55.7,30.22,SSE,154,3.0,17.0,95,0.00,,,0.00,Wunderground v.1.15,2013-05-03 07:04:00,
2013-05-03 03:06:00,57.1,55.7,30.22,South,173,3.0,17.0,95,0.00,,,0.00,Wunderground v.1.15,2013-05-03 07:06:00,
2013-05-03 03:11:00,57.1,55.7,30.22,SW,221,3.0,17.0,95,0.00,,,0.00,Wunderground v.1.15,2013-05-03 07:11:00,
2013-05-03 03:12:00,57.1,55.7,30.22,WSW,248,3.0,17.0,95,0.00,,,0.00,Wunderground v.1.15,2013-05-03 07:12:00,
2013-05-03 03:13:00,57.1,55.7,30.22,WSW,258,3.0,17.0,95,0.00,,,0.00,Wunderground v.1.15,2013-05-03 07:13:00,
2013-05-03 03:15:00,57.1,55.7,30.22,WSW,245,3.0,17.0,95,0.00,,,0.00,Wunderground v.1.15,2013-05-03 07:15:00,
2013-05-03 03:16:00,57.0,55.6,30.22,WSW,242,3.0,17.0,95,0.00,,,0.00,Wunderground v.1.15,2013-05-03 07:16:00,
2013-05-03 03:19:00,57.0,55.6,30.22,SW,218,3.0,17.0,95,0.00,,,0.00,Wunderground v.1.15,2013-05-03 07:19:00,
2013-05-03 03:20:00,57.0,55.6,30.22,SSW,197,3.0,3.0,95,0.00,,,0.00,Wunderground v.1.15,2013-05-03 07:20:00,
2013-05-03 03:21:00,57.0,55.6,30.22,SW,231,3.0,4.0,95,0.00,,,0.00,Wunderground v.1.15,2013-05-03 07:21:00,
2013-05-03 03:24:00,57.0,55.6,30.22,SW,218,3.0,17.0,95,0.00,,,0.00,Wunderground v.1.15,2013-05-03 07:24:00,
2013-05-03 03:25:00,57.0,55.6,30.22,West,259,3.0,17.0,95,0.00,,,0.00,Wunderground v.1.15,2013-05-03 07:25:00,
2013-05-03 03:27:00,57.0,55.6,30.22,WSW,245,3.0,17.0,95,0.00,,,0.00,Wunderground v.1.15,2013-05-03 07:27:00,
2013-05-03 03:30:00,56.9,55.5,30.22,WSW,249,3.0,3.0,95,0.00,,,0.00,Wunderground v.1.15,2013-05-03 07:30:00,
2013-05-03 03:32:00,56.9,55.5,30.22,WSW,257,3.0,6.0,95,0.00,,,0.00,Wunderground v.1.15,2013-05-03 07:32:00,
2013-05-03 03:34:00,56.9,55.5,30.22,WSW,242,3.0,17.0,95,0.00,,,0.00,Wunderground v.1.15,2013-05-03 07:34:00,
2013-05-03 03:35:00,56.9,55.5,30.22,WSW,242,3.0,17.0,95,0.00,,,0.00,Wunderground v.1.15,2013-05-03 07:35:00,
2013-05-03 03:39:00,56.9,55.5,30.22,West,280,2.0,17.0,95,0.00,,,0.00,Wunderground v.1.15,2013-05-03 07:39:00,
2013-05-03 03:43:00,56.9,55.5,30.22,NW,311,2.0,17.0,95,0.00,,,0.00,Wunderground v.1.15,2013-05-03 07:43:00,
2013-05-03 03:45:00,56.9,55.5,30.22,WSW,243,3.0,17.0,95,0.00,,,0.00,Wunderground v.1.15,2013-05-03 07:45:00,
2013-05-03 03:48:00,56.9,55.5,30.22,WSW,250,3.0,17.0,95,0.00,,,0.00,Wunderground v.1.15,2013-05-03 07:48:00,
2013-05-03 03:50:00,56.9,55.5,30.22,West,278,4.0,17.0,95,0.00,,,0.01,Wunderground v.1.15,2013-05-03 07:50:00,
2013-05-03 03:53:00,56.8,55.4,30.22,West,259,3.0,17.0,95,0.00,,,0.01,Wunderground v.1.15,2013-05-03 07:53:00,
2013-05-03 03:55:00,56.8,55.4,30.22,SSW,195,3.0,17.0,95,0.00,,,0.01,Wunderground v.1.15,2013-05-03 07:55:00,
2013-05-03 03:56:00,56.8,55.4,30.22,SSW,205,3.0,17.0,95,0.00,,,0.01,Wunderground v.1.15,2013-05-03 07:56:00,
2013-05-03 03:57:00,56.8,55.4,30.22,West,259,3.0,17.0,95,0.00,,,0.01,Wunderground v.1.15,2013-05-03 07:57:00,
2013-05-03 03:58:00,56.8,55.4,30.22,WSW,238,3.0,17.0,95,0.00,,,0.01,Wunderground v.1.15,2013-05-03 07:58:00,
2013-05-03 04:00:00,56.7,55.3,30.22,SSW,205,3.0,17.0,95,0.00,,,0.01,Wunderground v.1.15,2013-05-03 08:00:00,
2013-05-03 04:02:00,56.7,55.3,30.22,West,263,3.0,17.0,95,0.00,,,0.01,Wunderground v.1.15,2013-05-03 08:02:00,
2013-05-03 04:03:00,56.7,55.3,30.22,WSW,257,3.0,17.0,95,0.00,,,0.01,Wunderground v.1.15,2013-05-03 08:03:00,
2013-05-03 04:05:00,56.7,55.3,30.22,SW,236,2.0,17.0,95,0.00,,,0.01,Wunderground v.1.15,2013-05-03 08:05:00,
2013-05-03 04:07:00,56.7,55.3,30.22,SW,228,2.0,17.0,95,0.00,,,0.01,Wunderground v.1.15,2013-05-03 08:07:00,
2013-05-03 04:08:00,56.7,55.3,30.22,South,190,2.0,17.0,95,0.00,,,0.01,Wunderground v.1.15,2013-05-03 08:08:00,
2013-05-03 04:10:00,56.6,55.5,30.22,SSW,208,2.0,2.0,96,0.00,,,0.01,Wunderground v.1.15,2013-05-03 08:10:00,
2013-05-03 04:13:00,56.6,55.5,30.22,SSW,212,2.0,17.0,96,0.00,,,0.01,Wunderground v.1.15,2013-05-03 08:13:00,
2013-05-03 04:16:00,56.6,55.5,30.22,WSW,246,2.0,17.0,96,0.00,,,0.01,Wunderground v.1.15,2013-05-03 08:16:00,
2013-05-03 04:17:00,56.5,55.4,30.22,WSW,250,2.0,17.0,96,0.00,,,0.01,Wunderground v.1.15,2013-05-03 08:17:00,
2013-05-03 04:18:00,56.5,55.4,30.22,WSW,239,2.0,17.0,96,0.00,,,0.01,Wunderground v.1.15,2013-05-03 08:18:00,
2013-05-03 04:22:00,56.5,55.1,30.21,SSE,156,4.0,17.0,95,0.00,,,0.01,Wunderground v.1.15,2013-05-03 08:22:00,
2013-05-03 04:25:00,56.5,55.1,30.21,SSW,200,4.0,17.0,95,0.00,,,0.01,Wunderground v.1.15,2013-05-03 08:25:00,
2013-05-03 04:26:00,56.5,55.1,30.21,WSW,246,4.0,17.0,95,0.00,,,0.01,Wunderground v.1.15,2013-05-03 08:26:00,
2013-05-03 04:27:00,56.5,55.1,30.21,SSW,197,4.0,17.0,95,0.00,,,0.01,Wunderground v.1.15,2013-05-03 08:27:00,
2013-05-03 04:29:00,56.5,55.1,30.21,SW,224,4.0,17.0,95,0.00,,,0.01,Wunderground v.1.15,2013-05-03 08:29:00,
2013-05-03 04:31:00,56.5,55.1,30.21,SW,221,4.0,17.0,95,0.00,,,0.01,Wunderground v.1.15,2013-05-03 08:31:00,
2013-05-03 04:33:00,56.5,55.1,30.21,SW,232,3.0,17.0,95,0.00,,,0.01,Wunderground v.1.15,2013-05-03 08:33:00,
2013-05-03 04:36:00,56.5,55.1,30.21,WSW,246,4.0,17.0,95,0.00,,,0.01,Wunderground v.1.15,2013-05-03 08:36:00,
2013-05-03 04:37:00,56.5,55.1,30.21,West,268,4.0,17.0,95,0.00,,,0.01,Wunderground v.1.15,2013-05-03 08:37:00,
2013-05-03 04:39:00,56.4,55.0,30.21,SW,226,4.0,17.0,95,0.00,,,0.01,Wunderground v.1.15,2013-05-03 08:39:00,
2013-05-03 04:41:00,56.4,55.3,30.21,WSW,253,4.0,17.0,96,0.00,,,0.01,Wunderground v.1.15,2013-05-03 08:41:00,
2013-05-03 04:42:00,56.4,55.3,30.21,West,281,3.0,17.0,96,0.00,,,0.01,Wunderground v.1.15,2013-05-03 08:42:00,
2013-05-03 04:43:00,56.4,55.3,30.21,WSW,245,4.0,17.0,96,0.00,,,0.01,Wunderground v.1.15,2013-05-03 08:43:00,
2013-05-03 04:44:00,56.4,55.0,30.21,SSW,200,4.0,17.0,95,0.00,,,0.01,Wunderground v.1.15,2013-05-03 08:44:00,
2013-05-03 04:48:00,56.3,55.2,30.21,West,280,4.0,17.0,96,0.00,,,0.01,Wunderground v.1.15,2013-05-03 08:48:00,
2013-05-03 04:49:00,56.3,55.2,30.21,WSW,246,4.0,17.0,96,0.00,,,0.01,Wunderground v.1.15,2013-05-03 08:49:00,
2013-05-03 04:50:00,56.3,55.2,30.21,West,266,4.0,4.0,96,0.00,,,0.01,Wunderground v.1.15,2013-05-03 08:50:00,
2013-05-03 04:51:00,56.3,55.2,30.21,WSW,248,4.0,17.0,96,0.00,,,0.01,Wunderground v.1.15,2013-05-03 08:51:00,
2013-05-03 04:52:00,56.3,55.2,30.21,WSW,255,4.0,17.0,96,0.00,,,0.01,Wunderground v.1.15,2013-05-03 08:52:00,
2013-05-03 04:57:00,56.2,55.1,30.21,SSW,200,4.0,17.0,96,0.00,,,0.01,Wunderground v.1.15,2013-05-03 08:57:00,
2013-05-03 04:58:00,56.2,55.1,30.21,WSW,241,4.0,17.0,96,0.00,,,0.01,Wunderground v.1.15,2013-05-03 08:58:00,
2013-05-03 04:59:00,56.2,55.1,30.21,SE,132,3.0,17.0,96,0.00,,,0.01,Wunderground v.1.15,2013-05-03 08:59:00,
2013-05-03 05:00:00,56.2,55.1,30.21,WSW,256,3.0,17.0,96,0.00,,,0.01,Wunderground v.1.15,2013-05-03 09:00:00,
2013-05-03 05:01:00,56.2,55.1,30.21,WSW,248,3.0,17.0,96,0.00,,,0.01,Wunderground v.1.15,2013-05-03 09:01:00,
2013-05-03 05:03:00,56.1,55.0,30.20,South,181,3.0,17.0,96,0.00,,,0.01,Wunderground v.1.15,2013-05-03 09:03:00,
2013-05-03 05:06:00,56.1,55.0,30.21,WSW,254,4.0,17.0,96,0.00,,,0.01,Wunderground v.1.15,2013-05-03 09:06:00,
2013-05-03 05:08:00,56.1,55.0,30.20,South,188,4.0,17.0,96,0.00,,,0.01,Wunderground v.1.15,2013-05-03 09:08:00,
2013-05-03 05:10:00,56.1,54.7,30.20,SW,215,4.0,4.0,95,0.00,,,0.01,Wunderground v.1.15,2013-05-03 09:10:00,
2013-05-03 05:11:00,56.1,54.7,30.21,SSW,200,4.0,17.0,95,0.00,,,0.01,Wunderground v.1.15,2013-05-03 09:11:00,
2013-05-03 05:12:00,56.1,54.7,30.21,WNW,301,4.0,17.0,95,0.00,,,0.01,Wunderground v.1.15,2013-05-03 09:12:00,
2013-05-03 05:14:00,56.2,54.8,30.20,WSW,249,4.0,17.0,95,0.00,,,0.01,Wunderground v.1.15,2013-05-03 09:14:00,
2013-05-03 05:15:00,56.2,54.8,30.20,SW,235,4.0,17.0,95,0.00,,,0.01,Wunderground v.1.15,2013-05-03 09:15:00,
2013-05-03 05:16:00,56.2,54.8,30.21,SE,142,4.0,17.0,95,0.00,,,0.01,Wunderground v.1.15,2013-05-03 09:16:00,
2013-05-03 05:19:00,56.2,54.8,30.20,SW,228,4.0,4.0,95,0.00,,,0.01,Wunderground v.1.15,2013-05-03 09:19:00,
2013-05-03 05:21:00,56.2,54.8,30.20,SW,226,4.0,17.0,95,0.00,,,0.01,Wunderground v.1.15,2013-05-03 09:21:00,
2013-05-03 05:23:00,56.2,54.8,30.20,SSE,163,4.0,17.0,95,0.00,,,0.01,Wunderground v.1.15,2013-05-03 09:23:00,
2013-05-03 05:24:00,56.2,54.8,30.20,WSW,243,3.0,17.0,95,0.00,,,0.01,Wunderground v.1.15,2013-05-03 09:24:00,
2013-05-03 05:26:00,56.2,54.8,30.20,SSW,200,3.0,17.0,95,0.00,,,0.01,Wunderground v.1.15,2013-05-03 09:26:00,
2013-05-03 05:31:00,56.2,54.8,30.20,SW,226,3.0,4.0,95,0.00,,,0.01,Wunderground v.1.15,2013-05-03 09:31:00,
2013-05-03 05:32:00,56.2,54.8,30.20,SW,226,3.0,17.0,95,0.00,,,0.01,Wunderground v.1.15,2013-05-03 09:32:00,
2013-05-03 05:35:00,56.2,54.5,30.20,SSE,148,4.0,17.0,94,0.00,,,0.01,Wunderground v.1.15,2013-05-03 09:35:00,
2013-05-03 05:36:00,56.2,54.5,30.20,WNW,289,4.0,17.0,94,0.00,,,0.01,Wunderground v.1.15,2013-05-03 09:36:00,
2013-05-03 05:37:00,56.2,54.5,30.20,West,260,3.0,17.0,94,0.00,,,0.01,Wunderground v.1.15,2013-05-03 09:37:00,
2013-05-03 05:41:00,56.2,54.5,30.20,SSE,155,3.0,17.0,94,0.00,,,0.01,Wunderground v.1.15,2013-05-03 09:41:00,
2013-05-03 05:42:00,56.2,54.5,30.20,ESE,111,3.0,17.0,94,0.00,,,0.01,Wunderground v.1.15,2013-05-03 09:42:00,
2013-05-03 05:43:00,56.2,54.5,30.20,WSW,238,3.0,17.0,94,0.00,,,0.01,Wunderground v.1.15,2013-05-03 09:43:00,
2013-05-03 05:46:00,56.2,54.5,30.20,SW,235,3.0,17.0,94,0.00,,,0.01,Wunderground v.1.15,2013-05-03 09:46:00,
2013-05-03 05:47:00,56.2,54.5,30.20,SSW,210,3.0,17.0,94,0.00,,,0.01,Wunderground v.1.15,2013-05-03 09:47:00,
2013-05-03 05:50:00,56.2,54.5,30.20,SSW,210,3.0,17.0,94,0.00,,,0.01,Wunderground v.1.15,2013-05-03 09:50:00,
2013-05-03 05:53:00,56.3,54.6,30.21,SW,225,3.0,17.0,94,0.00,,,0.01,Wunderground v.1.15,2013-05-03 09:53:00,
2013-05-03 05:55:00,56.3,54.6,30.21,SSW,200,4.0,17.0,94,0.00,,,0.01,Wunderground v.1.15,2013-05-03 09:55:00,
2013-05-03 05:56:00,56.3,54.6,30.20,SE,140,4.0,17.0,94,0.00,,,0.01,Wunderground v.1.15,2013-05-03 09:56:00,
2013-05-03 05:57:00,56.3,54.6,30.20,WSW,248,4.0,17.0,94,0.00,,,0.01,Wunderground v.1.15,2013-05-03 09:57:00,
2013-05-03 05:59:00,56.3,54.6,30.20,WSW,257,3.0,17.0,94,0.00,,,0.01,Wunderground v.1.15,2013-05-03 09:59:00,
2013-05-03 06:04:00,56.3,54.6,30.21,SSE,150,2.0,17.0,94,0.00,,,0.01,Wunderground v.1.15,2013-05-03 10:04:00,
2013-05-03 06:05:00,56.3,54.6,30.21,WSW,248,2.0,17.0,94,0.00,,,0.01,Wunderground v.1.15,2013-05-03 10:05:00,
2013-05-03 06:06:00,56.3,54.6,30.21,WSW,245,2.0,17.0,94,0.00,,,0.01,Wunderground v.1.15,2013-05-03 10:06:00,
2013-05-03 06:09:00,56.3,54.6,30.21,WSW,246,2.0,17.0,94,0.00,,,0.01,Wunderground v.1.15,2013-05-03 10:09:00,
2013-05-03 06:10:00,56.3,54.6,30.21,West,263,2.0,17.0,94,0.00,,,0.01,Wunderground v.1.15,2013-05-03 10:10:00,
2013-05-03 06:12:00,56.3,54.6,30.21,SSW,207,2.0,17.0,94,0.00,,,0.01,Wunderground v.1.15,2013-05-03 10:12:00,
2013-05-03 06:14:00,56.3,54.6,30.21,SSE,167,3.0,17.0,94,0.00,,,0.01,Wunderground v.1.15,2013-05-03 10:14:00,
2013-05-03 06:16:00,56.3,54.6,30.21,SW,232,3.0,17.0,94,0.00,,,0.01,Wunderground v.1.15,2013-05-03 10:16:00,
2013-05-03 06:17:00,56.3,54.6,30.21,SE,139,3.0,17.0,94,0.00,,,0.01,Wunderground v.1.15,2013-05-03 10:17:00,
2013-05-03 06:19:00,56.3,54.6,30.21,WNW,300,2.0,2.0,94,0.00,,,0.01,Wunderground v.1.15,2013-05-03 10:19:00,
2013-05-03 06:21:00,56.3,54.6,30.21,South,184,2.0,17.0,94,0.00,,,0.01,Wunderground v.1.15,2013-05-03 10:21:00,
2013-05-03 06:23:00,56.3,54.6,30.22,WSW,243,2.0,17.0,94,0.00,,,0.01,Wunderground v.1.15,2013-05-03 10:23:00,
2013-05-03 06:26:00,56.3,54.6,30.22,WSW,250,2.0,17.0,94,0.00,,,0.01,Wunderground v.1.15,2013-05-03 10:26:00,
2013-05-03 06:29:00,56.3,54.6,30.21,SW,235,2.0,17.0,94,0.00,,,0.01,Wunderground v.1.15,2013-05-03 10:29:00,
2013-05-03 06:30:00,56.3,54.6,30.22,WSW,253,2.0,17.0,94,0.00,,,0.01,Wunderground v.1.15,2013-05-03 10:30:00,
2013-05-03 06:31:00,56.3,54.6,30.21,WSW,252,2.0,17.0,94,0.00,,,0.01,Wunderground v.1.15,2013-05-03 10:31:00,
2013-05-03 06:33:00,56.3,54.6,30.22,WSW,256,3.0,17.0,94,0.00,,,0.01,Wunderground v.1.15,2013-05-03 10:33:00,
2013-05-03 06:35:00,56.3,54.6,30.22,West,278,2.0,17.0,94,0.00,,,0.01,Wunderground v.1.15,2013-05-03 10:35:00,
2013-05-03 06:36:00,56.3,54.6,30.22,SSW,200,2.0,17.0,94,0.00,,,0.01,Wunderground v.1.15,2013-05-03 10:36:00,
2013-05-03 06:39:00,56.3,54.6,30.22,WSW,248,3.0,17.0,94,0.00,,,0.01,Wunderground v.1.15,2013-05-03 10:39:00,
2013-05-03 06:41:00,56.3,54.6,30.22,WSW,242,3.0,11.0,94,0.00,,,0.01,Wunderground v.1.15,2013-05-03 10:41:00,
2013-05-03 06:42:00,56.2,54.5,30.22,WSW,256,3.0,17.0,94,0.00,,,0.01,Wunderground v.1.15,2013-05-03 10:42:00,
2013-05-03 06:43:00,56.3,54.6,30.22,SW,215,3.0,17.0,94,0.00,,,0.01,Wunderground v.1.15,2013-05-03 10:43:00,
2013-05-03 06:46:00,56.3,54.6,30.22,West,279,4.0,17.0,94,0.00,,,0.01,Wunderground v.1.15,2013-05-03 10:46:00,
2013-05-03 06:47:00,56.3,54.6,30.22,SSW,193,4.0,17.0,94,0.00,,,0.01,Wunderground v.1.15,2013-05-03 10:47:00,
2013-05-03 06:49:00,56.3,54.6,30.22,WNW,287,4.0,17.0,94,0.00,,,0.01,Wunderground v.1.15,2013-05-03 10:49:00,
2013-05-03 06:50:00,56.3,54.3,30.22,West,259,4.0,4.0,93,0.00,,,0.01,Wunderground v.1.15,2013-05-03 10:50:00,
2013-05-03 06:54:00,56.3,54.3,30.22,SW,218,3.0,17.0,93,0.00,,,0.01,Wunderground v.1.15,2013-05-03 10:54:00,
2013-05-03 06:58:00,56.3,54.3,30.22,WSW,247,4.0,17.0,93,0.00,,,0.01,Wunderground v.1.15,2013-05-03 10:58:00,
2013-05-03 07:00:00,56.2,54.5,30.22,SW,228,3.0,3.0,94,0.00,,,0.01,Wunderground v.1.15,2013-05-03 11:00:00,
2013-05-03 07:02:00,56.2,54.5,30.22,SW,222,3.0,17.0,94,0.00,,,0.01,Wunderground v.1.15,2013-05-03 11:02:00,
2013-05-03 07:05:00,56.2,54.5,30.22,WSW,241,3.0,17.0,94,0.00,,,0.01,Wunderground v.1.15,2013-05-03 11:05:00,
2013-05-03 07:06:00,56.2,54.5,30.22,ENE,74,3.0,17.0,94,0.00,,,0.01,Wunderground v.1.15,2013-05-03 11:06:00,
2013-05-03 07:07:00,56.2,54.5,30.22,West,260,2.0,17.0,94,0.00,,,0.01,Wunderground v.1.15,2013-05-03 11:07:00,
2013-05-03 07:08:00,56.2,54.5,30.22,SW,229,2.0,17.0,94,0.00,,,0.01,Wunderground v.1.15,2013-05-03 11:08:00,
2013-05-03 07:10:00,56.2,54.5,30.23,WSW,245,2.0,17.0,94,0.00,,,0.01,Wunderground v.1.15,2013-05-03 11:10:00,
2013-05-03 07:12:00,56.2,54.2,30.23,WSW,253,3.0,17.0,93,0.00,,,0.01,Wunderground v.1.15,2013-05-03 11:12:00,
2013-05-03 07:15:00,56.2,54.2,30.23,WSW,246,3.0,17.0,93,0.00,,,0.01,Wunderground v.1.15,2013-05-03 11:15:00,
2013-05-03 07:17:00,56.2,54.2,30.23,SW,215,4.0,17.0,93,0.00,,,0.01,Wunderground v.1.15,2013-05-03 11:17:00,
2013-05-03 07:18:00,56.2,54.2,30.23,East,94,4.0,17.0,93,0.00,,,0.01,Wunderground v.1.15,2013-05-03 11:18:00,
2013-05-03 07:19:00,56.2,54.5,30.23,SW,236,4.0,17.0,94,0.00,,,0.01,Wunderground v.1.15,2013-05-03 11:19:00,
2013-05-03 07:23:00,56.2,54.5,30.23,SW,226,3.0,17.0,94,0.00,,,0.01,Wunderground v.1.15,2013-05-03 11:23:00,
2013-05-03 07:24:00,56.2,54.2,30.23,WSW,250,3.0,17.0,93,0.00,,,0.01,Wunderground v.1.15,2013-05-03 11:24:00,
2013-05-03 07:29:00,56.3,54.3,30.23,SW,229,3.0,17.0,93,0.00,,,0.01,Wunderground v.1.15,2013-05-03 11:29:00,
2013-05-03 07:30:00,56.3,54.3,30.23,SW,218,4.0,17.0,93,0.00,,,0.01,Wunderground v.1.15,2013-05-03 11:30:00,
2013-05-03 07:31:00,56.3,54.3,30.23,WSW,241,4.0,17.0,93,0.00,,,0.01,Wunderground v.1.15,2013-05-03 11:31:00,
2013-05-03 07:34:00,56.3,54.3,30.23,WSW,246,5.0,17.0,93,0.00,,,0.01,Wunderground v.1.15,2013-05-03 11:34:00,
2013-05-03 07:35:00,56.3,54.0,30.23,SSE,150,5.0,17.0,92,0.00,,,0.01,Wunderground v.1.15,2013-05-03 11:35:00,
2013-05-03 07:38:00,56.3,54.0,30.23,NE,36,4.0,17.0,92,0.00,,,0.01,Wunderground v.1.15,2013-05-03 11:38:00,
2013-05-03 07:39:00,56.3,54.0,30.23,SSW,208,4.0,17.0,92,0.00,,,0.01,Wunderground v.1.15,2013-05-03 11:39:00,
2013-05-03 07:40:00,56.3,54.0,30.23,South,188,3.0,3.0,92,0.00,,,0.01,Wunderground v.1.15,2013-05-03 11:40:00,
2013-05-03 07:41:00,56.3,54.0,30.23,NW,308,3.0,17.0,92,0.00,,,0.01,Wunderground v.1.15,2013-05-03 11:41:00,
2013-05-03 07:43:00,56.3,54.0,30.23,SW,235,3.0,17.0,92,0.00,,,0.01,Wunderground v.1.15,2013-05-03 11:43:00,
2013-05-03 07:45:00,56.3,53.7,30.23,SSW,194,3.0,17.0,91,0.00,,,0.01,Wunderground v.1.15,2013-05-03 11:45:00,
2013-05-03 07:46:00,56.3,53.7,30.23,WSW,240,3.0,17.0,91,0.00,,,0.01,Wunderground v.1.15,2013-05-03 11:46:00,
2013-05-03 07:50:00,56.4,53.5,30.23,WSW,248,4.0,17.0,90,0.00,,,0.01,Wunderground v.1.15,2013-05-03 11:50:00,
2013-05-03 07:51:00,56.4,53.5,30.23,WSW,246,4.0,17.0,90,0.00,,,0.01,Wunderground v.1.15,2013-05-03 11:51:00,
2013-05-03 07:52:00,56.4,53.5,30.23,West,274,4.0,17.0,90,0.00,,,0.01,Wunderground v.1.15,2013-05-03 11:52:00,
2013-05-03 07:55:00,56.4,53.5,30.23,WNW,287,4.0,17.0,90,0.00,,,0.01,Wunderground v.1.15,2013-05-03 11:55:00,
2013-05-03 07:56:00,56.4,53.5,30.23,SSW,203,4.0,17.0,90,0.00,,,0.01,Wunderground v.1.15,2013-05-03 11:56:00,
2013-05-03 08:01:00,56.5,53.3,30.24,SSE,166,3.0,17.0,89,0.00,,,0.01,Wunderground v.1.15,2013-05-03 12:01:00,
2013-05-03 08:02:00,56.5,53.3,30.24,SW,229,3.0,17.0,89,0.00,,,0.01,Wunderground v.1.15,2013-05-03 12:02:00,
2013-05-03 08:03:00,56.5,53.3,30.23,South,189,3.0,17.0,89,0.00,,,0.01,Wunderground v.1.15,2013-05-03 12:03:00,
2013-05-03 08:05:00,56.5,53.3,30.23,SW,218,3.0,17.0,89,0.00,,,0.01,Wunderground v.1.15,2013-05-03 12:05:00,
2013-05-03 08:06:00,56.5,53.3,30.23,SSW,211,3.0,17.0,89,0.00,,,0.01,Wunderground v.1.15,2013-05-03 12:06:00,
2013-05-03 08:08:00,56.5,53.3,30.23,SW,224,3.0,17.0,89,0.00,,,0.01,Wunderground v.1.15,2013-05-03 12:08:00,
2013-05-03 08:10:00,56.6,53.4,30.23,SW,236,3.0,17.0,89,0.00,,,0.01,Wunderground v.1.15,2013-05-03 12:10:00,
2013-05-03 08:11:00,56.6,53.4,30.23,SSW,205,3.0,17.0,89,0.00,,,0.01,Wunderground v.1.15,2013-05-03 12:11:00,
2013-05-03 08:12:00,56.6,53.4,30.23,WNW,293,3.0,17.0,89,0.00,,,0.01,Wunderground v.1.15,2013-05-03 12:12:00,
2013-05-03 08:15:00,56.6,53.4,30.23,WNW,284,4.0,17.0,89,0.00,,,0.01,Wunderground v.1.15,2013-05-03 12:15:00,
2013-05-03 08:16:00,56.6,53.4,30.23,SW,217,4.0,17.0,89,0.00,,,0.01,Wunderground v.1.15,2013-05-03 12:16:00,
2013-05-03 08:18:00,56.6,53.4,30.24,SW,222,4.0,17.0,89,0.00,,,0.01,Wunderground v.1.15,2013-05-03 12:18:00,
2013-05-03 08:21:00,56.6,53.4,30.23,SE,140,3.0,17.0,89,0.00,,,0.01,Wunderground v.1.15,2013-05-03 12:21:00,
2013-05-03 08:23:00,56.7,53.5,30.24,West,264,3.0,17.0,89,0.00,,,0.01,Wunderground v.1.15,2013-05-03 12:23:00,
2013-05-03 08:24:00,56.7,53.5,30.24,SW,229,4.0,17.0,89,0.00,,,0.01,Wunderground v.1.15,2013-05-03 12:24:00,
2013-05-03 08:26:00,56.7,53.2,30.24,West,276,4.0,17.0,88,0.00,,,0.01,Wunderground v.1.15,2013-05-03 12:26:00,
2013-05-03 08:29:00,56.7,53.2,30.24,SW,226,4.0,17.0,88,0.00,,,0.01,Wunderground v.1.15,2013-05-03 12:29:00,
2013-05-03 08:30:00,56.8,53.3,30.24,ESE,102,4.0,4.0,88,0.00,,,0.01,Wunderground v.1.15,2013-05-03 12:30:00,
2013-05-03 08:32:00,56.8,53.3,30.24,West,262,4.0,17.0,88,0.00,,,0.01,Wunderground v.1.15,2013-05-03 12:32:00,
2013-05-03 08:35:00,56.9,53.4,30.24,SW,215,4.0,17.0,88,0.00,,,0.01,Wunderground v.1.15,2013-05-03 12:35:00,
2013-05-03 08:36:00,56.9,53.4,30.24,ESE,113,4.0,17.0,88,0.00,,,0.01,Wunderground v.1.15,2013-05-03 12:36:00,
2013-05-03 08:38:00,57.0,53.2,30.24,WSW,257,4.0,17.0,87,0.00,,,0.01,Wunderground v.1.15,2013-05-03 12:38:00,
2013-05-03 08:41:00,57.0,53.5,30.24,East,101,4.0,17.0,88,0.00,,,0.01,Wunderground v.1.15,2013-05-03 12:41:00,
2013-05-03 08:42:00,57.1,53.3,30.24,West,264,4.0,17.0,87,0.00,,,0.01,Wunderground v.1.15,2013-05-03 12:42:00,
2013-05-03 08:43:00,57.1,53.6,30.24,WSW,238,4.0,17.0,88,0.00,,,0.01,Wunderground v.1.15,2013-05-03 12:43:00,
2013-05-03 08:44:00,57.1,53.3,30.24,West,266,5.0,17.0,87,0.00,,,0.01,Wunderground v.1.15,2013-05-03 12:44:00,
2013-05-03 08:46:00,57.1,53.3,30.24,SW,232,5.0,17.0,87,0.00,,,0.01,Wunderground v.1.15,2013-05-03 12:46:00,
2013-05-03 08:47:00,57.2,53.7,30.24,WSW,253,5.0,17.0,88,0.00,,,0.01,Wunderground v.1.15,2013-05-03 12:47:00,
2013-05-03 08:50:00,57.3,53.5,30.24,West,266,5.0,5.0,87,0.00,,,0.01,Wunderground v.1.15,2013-05-03 12:50:00,
2013-05-03 08:54:00,57.4,53.6,30.24,West,276,4.0,17.0,87,0.00,,,0.01,Wunderground v.1.15,2013-05-03 12:54:00,
2013-05-03 08:56:00,57.6,53.8,30.24,South,172,4.0,17.0,87,0.00,,,0.01,Wunderground v.1.15,2013-05-03 12:56:00,
2013-05-03 08:57:00,57.6,53.8,30.24,SW,218,4.0,17.0,87,0.00,,,0.01,Wunderground v.1.15,2013-05-03 12:57:00,
2013-05-03 08:59:00,57.7,53.5,30.24,South,191,4.0,17.0,86,0.00,,,0.01,Wunderground v.1.15,2013-05-03 12:59:00,
2013-05-03 09:00:00,57.7,53.9,30.24,NNW,345,3.0,3.0,87,0.00,,,0.01,Wunderground v.1.15,2013-05-03 13:00:00,
2013-05-03 09:02:00,57.8,53.3,30.24,West,262,4.0,17.0,85,0.00,,,0.01,Wunderground v.1.15,2013-05-03 13:02:00,
2013-05-03 09:04:00,57.8,53.3,30.24,SW,232,4.0,17.0,85,0.00,,,0.01,Wunderground v.1.15,2013-05-03 13:04:00,
2013-05-03 09:06:00,57.9,53.4,30.24,WSW,256,4.0,17.0,85,0.00,,,0.01,Wunderground v.1.15,2013-05-03 13:06:00,
2013-05-03 09:07:00,57.9,53.4,30.24,West,273,5.0,17.0,85,0.00,,,0.01,Wunderground v.1.15,2013-05-03 13:07:00,
2013-05-03 09:10:00,58.1,53.6,30.24,SW,229,5.0,5.0,85,0.00,,,0.01,Wunderground v.1.15,2013-05-03 13:10:00,
2013-05-03 09:12:00,58.2,53.7,30.24,WNW,283,5.0,17.0,85,0.00,,,0.01,Wunderground v.1.15,2013-05-03 13:12:00,
2013-05-03 09:13:00,58.3,53.5,30.24,WSW,258,5.0,17.0,84,0.00,,,0.01,Wunderground v.1.15,2013-05-03 13:13:00,
2013-05-03 09:15:00,58.3,53.5,30.24,West,264,5.0,17.0,84,0.00,,,0.01,Wunderground v.1.15,2013-05-03 13:15:00,
2013-05-03 09:16:00,58.3,53.5,30.24,WSW,253,5.0,17.0,84,0.00,,,0.01,Wunderground v.1.15,2013-05-03 13:16:00,
2013-05-03 09:18:00,58.3,53.2,30.24,WSW,240,6.0,17.0,83,0.00,,,0.01,Wunderground v.1.15,2013-05-03 13:18:00,
2013-05-03 09:20:00,58.2,53.4,30.25,SSW,207,5.0,5.0,84,0.00,,,0.01,Wunderground v.1.15,2013-05-03 13:20:00,
2013-05-03 09:21:00,58.2,53.1,30.24,WSW,247,6.0,11.0,83,0.00,,,0.01,Wunderground v.1.15,2013-05-03 13:21:00,
2013-05-03 09:22:00,58.2,53.4,30.24,West,262,7.0,17.0,84,0.00,,,0.01,Wunderground v.1.15,2013-05-03 13:22:00,
2013-05-03 09:25:00,58.3,53.5,30.24,WSW,245,7.0,17.0,84,0.00,,,0.01,Wunderground v.1.15,2013-05-03 13:25:00,
2013-05-03 09:26:00,58.3,53.2,30.24,SW,232,7.0,17.0,83,0.00,,,0.01,Wunderground v.1.15,2013-05-03 13:26:00,
2013-05-03 09:27:00,58.3,53.2,30.24,WSW,255,7.0,17.0,83,0.00,,,0.01,Wunderground v.1.15,2013-05-03 13:27:00,
2013-05-03 09:30:00,58.4,52.9,30.24,SW,222,7.0,17.0,82,0.00,,,0.01,Wunderground v.1.15,2013-05-03 13:30:00,
2013-05-03 09:32:00,58.4,53.3,30.24,WSW,255,6.0,17.0,83,0.00,,,0.01,Wunderground v.1.15,2013-05-03 13:32:00,
2013-05-03 09:34:00,58.4,53.3,30.24,West,270,7.0,17.0,83,0.00,,,0.01,Wunderground v.1.15,2013-05-03 13:34:00,
2013-05-03 09:35:00,58.5,53.7,30.24,WNW,289,6.0,17.0,84,0.00,,,0.01,Wunderground v.1.15,2013-05-03 13:35:00,
2013-05-03 09:36:00,58.5,53.4,30.24,WSW,242,6.0,17.0,83,0.00,,,0.01,Wunderground v.1.15,2013-05-03 13:36:00,
2013-05-03 09:37:00,58.5,53.4,30.24,WSW,253,6.0,17.0,83,0.00,,,0.01,Wunderground v.1.15,2013-05-03 13:37:00,
2013-05-03 09:39:00,58.5,53.4,30.24,WNW,286,7.0,17.0,83,0.00,,,0.01,Wunderground v.1.15,2013-05-03 13:39:00,
2013-05-03 09:44:00,58.6,53.5,30.24,SSW,205,6.0,17.0,83,0.00,,,0.01,Wunderground v.1.15,2013-05-03 13:44:00,
2013-05-03 09:46:00,58.7,53.5,30.24,South,190,6.0,17.0,83,0.00,,,0.01,Wunderground v.1.15,2013-05-03 13:46:00,
2013-05-03 09:50:00,58.8,53.6,30.24,SE,142,5.0,17.0,83,0.00,,,0.01,Wunderground v.1.15,2013-05-03 13:50:00,
2013-05-03 09:51:00,59.0,53.8,30.24,West,262,5.0,17.0,83,0.00,,,0.01,Wunderground v.1.15,2013-05-03 13:51:00,
2013-05-03 09:53:00,59.0,53.5,30.24,SE,132,5.0,17.0,82,0.00,,,0.01,Wunderground v.1.15,2013-05-03 13:53:00,
2013-05-03 09:57:00,59.4,54.2,30.24,South,183,4.0,17.0,83,0.00,,,0.01,Wunderground v.1.15,2013-05-03 13:57:00,
2013-05-03 09:58:00,59.5,54.0,30.24,SW,235,4.0,17.0,82,0.00,,,0.01,Wunderground v.1.15,2013-05-03 13:58:00,
2013-05-03 09:59:00,59.7,54.2,30.23,South,184,4.0,4.0,82,0.00,,,0.01,Wunderground v.1.15,2013-05-03 13:59:00,
2013-05-03 10:01:00,59.9,54.1,30.24,SSW,203,4.0,6.0,81,0.00,,,0.01,Wunderground v.1.15,2013-05-03 14:01:00,
2013-05-03 10:02:00,59.9,53.7,30.23,South,176,4.0,9.0,80,0.00,,,0.01,Wunderground v.1.15,2013-05-03 14:02:00,
2013-05-03 10:04:00,60.0,53.8,30.23,West,259,4.0,17.0,80,0.00,,,0.01,Wunderground v.1.15,2013-05-03 14:04:00,
2013-05-03 10:07:00,60.0,54.2,30.23,SSW,207,5.0,17.0,81,0.00,,,0.01,Wunderground v.1.15,2013-05-03 14:07:00,
2013-05-03 10:08:00,60.0,53.8,30.23,WSW,249,5.0,17.0,80,0.00,,,0.01,Wunderground v.1.15,2013-05-03 14:08:00,
2013-05-03 10:12:00,60.1,53.9,30.23,SW,215,6.0,17.0,80,0.00,,,0.01,Wunderground v.1.15,2013-05-03 14:12:00,
2013-05-03 10:13:00,60.2,54.0,30.23,WSW,250,6.0,17.0,80,0.00,,,0.01,Wunderground v.1.15,2013-05-03 14:13:00,
2013-05-03 10:14:00,60.2,54.0,30.23,East,90,6.0,17.0,80,0.00,,,0.01,Wunderground v.1.15,2013-05-03 14:14:00,
2013-05-03 10:15:00,60.3,54.1,30.23,SW,221,6.0,17.0,80,0.00,,,0.01,Wunderground v.1.15,2013-05-03 14:15:00,
2013-05-03 10:19:00,60.3,53.8,30.23,WSW,245,6.0,17.0,79,0.00,,,0.01,Wunderground v.1.15,2013-05-03 14:19:00,
2013-05-03 10:20:00,60.2,54.0,30.23,SW,226,6.0,6.0,80,0.00,,,0.01,Wunderground v.1.15,2013-05-03 14:20:00,
2013-05-03 10:21:00,60.2,53.7,30.23,South,190,6.0,17.0,79,0.00,,,0.01,Wunderground v.1.15,2013-05-03 14:21:00,
2013-05-03 10:24:00,60.3,54.1,30.23,WSW,246,5.0,17.0,80,0.00,,,0.01,Wunderground v.1.15,2013-05-03 14:24:00,
2013-05-03 10:25:00,60.3,53.8,30.23,SW,226,5.0,17.0,79,0.00,,,0.01,Wunderground v.1.15,2013-05-03 14:25:00,
2013-05-03 10:26:00,60.3,54.1,30.23,SW,228,6.0,17.0,80,0.00,,,0.01,Wunderground v.1.15,2013-05-03 14:26:00,
2013-05-03 10:29:00,60.3,54.1,30.23,SW,218,5.0,17.0,80,0.00,,,0.01,Wunderground v.1.15,2013-05-03 14:29:00,
2013-05-03 10:30:00,60.4,54.2,30.23,SW,222,5.0,5.0,80,0.00,,,0.01,Wunderground v.1.15,2013-05-03 14:30:00,
2013-05-03 10:32:00,60.4,53.9,30.23,South,176,5.0,17.0,79,0.00,,,0.01,Wunderground v.1.15,2013-05-03 14:32:00,
2013-05-03 10:33:00,60.5,54.0,30.23,SE,126,5.0,17.0,79,0.00,,,0.01,Wunderground v.1.15,2013-05-03 14:33:00,
2013-05-03 10:34:00,60.5,53.6,30.23,WSW,238,5.0,17.0,78,0.00,,,0.01,Wunderground v.1.15,2013-05-03 14:34:00,
2013-05-03 10:37:00,60.4,53.5,30.23,SW,226,5.0,17.0,78,0.00,,,0.01,Wunderground v.1.15,2013-05-03 14:37:00,
2013-05-03 10:38:00,60.3,53.4,30.23,South,186,5.0,17.0,78,0.00,,,0.01,Wunderground v.1.15,2013-05-03 14:38:00,
2013-05-03 10:39:00,60.3,53.8,30.23,SE,142,4.0,17.0,79,0.00,,,0.01,Wunderground v.1.15,2013-05-03 14:39:00,
2013-05-03 10:40:00,60.3,53.8,30.23,WSW,245,4.0,17.0,79,0.00,,,0.01,Wunderground v.1.15,2013-05-03 14:40:00,
2013-05-03 10:41:00,60.3,53.4,30.23,South,188,5.0,17.0,78,0.00,,,0.01,Wunderground v.1.15,2013-05-03 14:41:00,
2013-05-03 10:43:00,60.2,53.3,30.23,SW,232,5.0,17.0,78,0.00,,,0.01,Wunderground v.1.15,2013-05-03 14:43:00,
2013-05-03 10:45:00,60.2,53.7,30.23,WNW,284,4.0,17.0,79,0.00,,,0.01,Wunderground v.1.15,2013-05-03 14:45:00,
2013-05-03 10:46:00,60.2,53.3,30.23,SW,235,5.0,17.0,78,0.00,,,0.01,Wunderground v.1.15,2013-05-03 14:46:00,
2013-05-03 10:50:00,60.1,53.6,30.23,SSW,204,5.0,17.0,79,0.00,,,0.01,Wunderground v.1.15,2013-05-03 14:50:00,
2013-05-03 10:51:00,60.1,53.6,30.24,SW,229,5.0,17.0,79,0.00,,,0.01,Wunderground v.1.15,2013-05-03 14:51:00,
2013-05-03 10:53:00,60.1,53.2,30.23,West,266,6.0,17.0,78,0.00,,,0.01,Wunderground v.1.15,2013-05-03 14:53:00,
2013-05-03 10:54:00,60.1,53.6,30.23,SW,218,6.0,17.0,79,0.00,,,0.01,Wunderground v.1.15,2013-05-03 14:54:00,
2013-05-03 10:56:00,60.1,53.2,30.24,SW,230,6.0,17.0,78,0.00,,,0.01,Wunderground v.1.15,2013-05-03 14:56:00,
2013-05-03 10:58:00,60.1,53.6,30.24,SSW,212,5.0,17.0,79,0.00,,,0.01,Wunderground v.1.15,2013-05-03 14:58:00,
2013-05-03 10:59:00,60.1,53.2,30.24,SW,217,5.0,17.0,78,0.00,,,0.01,Wunderground v.1.15,2013-05-03 14:59:00,
2013-05-03 11:02:00,60.1,53.2,30.24,WSW,253,4.0,17.0,78,0.00,,,0.01,Wunderground v.1.15,2013-05-03 15:02:00,
2013-05-03 11:04:00,60.1,53.2,30.24,SW,236,5.0,17.0,78,0.00,,,0.01,Wunderground v.1.15,2013-05-03 15:04:00,
2013-05-03 11:05:00,60.1,53.6,30.23,SSW,207,5.0,17.0,79,0.00,,,0.01,Wunderground v.1.15,2013-05-03 15:05:00,
2013-05-03 11:07:00,60.1,53.6,30.24,SW,235,4.0,17.0,79,0.00,,,0.01,Wunderground v.1.15,2013-05-03 15:07:00,
2013-05-03 11:11:00,60.3,53.8,30.23,WSW,243,4.0,17.0,79,0.00,,,0.01,Wunderground v.1.15,2013-05-03 15:11:00,
2013-05-03 11:13:00,60.5,54.0,30.23,SW,220,3.0,17.0,79,0.00,,,0.01,Wunderground v.1.15,2013-05-03 15:13:00,
2013-05-03 11:14:00,60.5,54.0,30.23,SSW,198,3.0,17.0,79,0.00,,,0.01,Wunderground v.1.15,2013-05-03 15:14:00,
2013-05-03 11:16:00,60.6,53.7,30.24,West,278,3.0,17.0,78,0.00,,,0.01,Wunderground v.1.15,2013-05-03 15:16:00,
2013-05-03 11:21:00,60.5,53.6,30.23,WSW,253,4.0,8.0,78,0.00,,,0.01,Wunderground v.1.15,2013-05-03 15:21:00,
2013-05-03 11:22:00,60.5,53.6,30.23,SW,226,4.0,17.0,78,0.00,,,0.01,Wunderground v.1.15,2013-05-03 15:22:00,
2013-05-03 11:25:00,60.4,53.5,30.23,SW,232,5.0,17.0,78,0.00,,,0.01,Wunderground v.1.15,2013-05-03 15:25:00,
2013-05-03 11:26:00,60.4,53.5,30.23,SSW,194,5.0,17.0,78,0.00,,,0.01,Wunderground v.1.15,2013-05-03 15:26:00,
2013-05-03 11:28:00,60.5,53.6,30.23,West,267,5.0,17.0,78,0.00,,,0.01,Wunderground v.1.15,2013-05-03 15:28:00,
2013-05-03 11:30:00,60.6,53.7,30.23,WNW,284,4.0,17.0,78,0.00,,,0.01,Wunderground v.1.15,2013-05-03 15:30:00,
2013-05-03 11:32:00,60.6,53.7,30.23,West,260,5.0,17.0,78,0.00,,,0.01,Wunderground v.1.15,2013-05-03 15:32:00,
2013-05-03 11:33:00,60.5,53.3,30.23,SSW,207,5.0,17.0,77,0.00,,,0.01,Wunderground v.1.15,2013-05-03 15:33:00,
2013-05-03 11:37:00,60.5,53.6,30.23,WSW,240,6.0,17.0,78,0.00,,,0.01,Wunderground v.1.15,2013-05-03 15:37:00,
2013-05-03 11:38:00,60.5,53.6,30.23,SW,229,6.0,17.0,78,0.00,,,0.01,Wunderground v.1.15,2013-05-03 15:38:00,
2013-05-03 11:39:00,60.5,54.0,30.23,NW,319,6.0,17.0,79,0.00,,,0.01,Wunderground v.1.15,2013-05-03 15:39:00,
2013-05-03 11:40:00,60.6,54.0,30.23,West,259,6.0,17.0,79,0.00,,,0.01,Wunderground v.1.15,2013-05-03 15:40:00,
2013-05-03 11:42:00,60.7,53.8,30.23,WSW,239,7.0,17.0,78,0.00,,,0.01,Wunderground v.1.15,2013-05-03 15:42:00,
2013-05-03 11:44:00,60.7,53.8,30.23,WSW,245,7.0,17.0,78,0.00,,,0.01,Wunderground v.1.15,2013-05-03 15:44:00,
2013-05-03 11:48:00,60.9,54.0,30.23,West,263,6.0,17.0,78,0.00,,,0.01,Wunderground v.1.15,2013-05-03 15:48:00,
2013-05-03 11:51:00,61.1,54.2,30.23,WSW,241,6.0,17.0,78,0.00,,,0.01,Wunderground v.1.15,2013-05-03 15:51:00,
2013-05-03 11:53:00,61.2,53.9,30.23,SW,235,6.0,17.0,77,0.00,,,0.01,Wunderground v.1.15,2013-05-03 15:53:00,
2013-05-03 11:54:00,61.2,53.9,30.23,SW,215,6.0,17.0,77,0.00,,,0.01,Wunderground v.1.15,2013-05-03 15:54:00,
2013-05-03 11:59:00,61.6,54.0,30.23,SW,236,5.0,17.0,76,0.00,,,0.01,Wunderground v.1.15,2013-05-03 15:59:00,
2013-05-03 12:00:00,61.5,53.9,30.23,SW,229,5.0,17.0,76,0.00,,,0.01,Wunderground v.1.15,2013-05-03 16:00:00,
2013-05-03 12:01:00,61.4,53.8,30.23,SE,139,5.0,17.0,76,0.00,,,0.01,Wunderground v.1.15,2013-05-03 16:01:00,
2013-05-03 12:02:00,61.4,53.8,30.23,South,181,5.0,17.0,76,0.00,,,0.01,Wunderground v.1.15,2013-05-03 16:02:00,
2013-05-03 12:05:00,61.3,54.0,30.23,SW,221,5.0,17.0,77,0.00,,,0.01,Wunderground v.1.15,2013-05-03 16:05:00,
2013-05-03 12:06:00,61.3,54.0,30.23,SSW,207,5.0,17.0,77,0.00,,,0.01,Wunderground v.1.15,2013-05-03 16:06:00,
2013-05-03 12:09:00,61.1,53.5,30.23,West,260,6.0,17.0,76,0.00,,,0.01,Wunderground v.1.15,2013-05-03 16:09:00,
2013-05-03 12:11:00,60.9,53.6,30.23,South,169,6.0,7.0,77,0.00,,,0.01,Wunderground v.1.15,2013-05-03 16:11:00,
2013-05-03 12:12:00,60.9,53.6,30.23,WSW,241,6.0,9.0,77,0.00,,,0.01,Wunderground v.1.15,2013-05-03 16:12:00,
2013-05-03 12:13:00,60.8,53.5,30.23,SSE,155,6.0,17.0,77,0.00,,,0.01,Wunderground v.1.15,2013-05-03 16:13:00,
2013-05-03 12:14:00,60.8,53.5,30.23,SW,235,7.0,17.0,77,0.00,,,0.01,Wunderground v.1.15,2013-05-03 16:14:00,
2013-05-03 12:16:00,60.6,53.7,30.23,WSW,240,7.0,17.0,78,0.00,,,0.01,Wunderground v.1.15,2013-05-03 16:16:00,
2013-05-03 12:18:00,60.6,53.7,30.23,NW,316,6.0,17.0,78,0.00,,,0.01,Wunderground v.1.15,2013-05-03 16:18:00,
2013-05-03 12:19:00,60.6,53.7,30.23,WSW,250,6.0,17.0,78,0.00,,,0.01,Wunderground v.1.15,2013-05-03 16:19:00,
2013-05-03 12:20:00,60.6,54.0,30.23,West,264,6.0,6.0,79,0.00,,,0.01,Wunderground v.1.15,2013-05-03 16:20:00,
2013-05-03 12:21:00,60.6,54.0,30.23,SSW,197,6.0,17.0,79,0.00,,,0.01,Wunderground v.1.15,2013-05-03 16:21:00,
2013-05-03 12:24:00,60.7,53.8,30.23,SW,235,5.0,17.0,78,0.00,,,0.01,Wunderground v.1.15,2013-05-03 16:24:00,
2013-05-03 12:25:00,60.6,53.7,30.23,SSW,210,5.0,17.0,78,0.00,,,0.01,Wunderground v.1.15,2013-05-03 16:25:00,
2013-05-03 12:26:00,60.6,53.7,30.23,West,281,4.0,17.0,78,0.00,,,0.01,Wunderground v.1.15,2013-05-03 16:26:00,
2013-05-03 12:27:00,60.6,54.0,30.23,ENE,60,4.0,17.0,79,0.00,,,0.01,Wunderground v.1.15,2013-05-03 16:27:00,
2013-05-03 12:28:00,60.6,54.0,30.23,West,264,4.0,17.0,79,0.00,,,0.01,Wunderground v.1.15,2013-05-03 16:28:00,
2013-05-03 12:29:00,60.7,54.1,30.23,SW,224,4.0,17.0,79,0.00,,,0.01,Wunderground v.1.15,2013-05-03 16:29:00,
2013-05-03 12:31:00,60.6,54.0,30.23,SW,215,4.0,17.0,79,0.00,,,0.01,Wunderground v.1.15,2013-05-03 16:31:00,
2013-05-03 12:33:00,60.4,54.2,30.22,NNW,337,5.0,17.0,80,0.00,,,0.01,Wunderground v.1.15,2013-05-03 16:33:00,
2013-05-03 12:34:00,60.4,54.9,30.23,NW,312,5.0,17.0,82,0.00,,,0.01,Wunderground v.1.15,2013-05-03 16:34:00,
2013-05-03 12:36:00,60.1,54.6,30.22,SW,229,5.0,17.0,82,0.00,,,0.01,Wunderground v.1.15,2013-05-03 16:36:00,
2013-05-03 12:38:00,60.0,54.8,30.22,SW,222,5.0,17.0,83,0.00,,,0.01,Wunderground v.1.15,2013-05-03 16:38:00,
2013-05-03 12:39:00,60.0,54.5,30.22,WSW,245,5.0,17.0,82,0.00,,,0.01,Wunderground v.1.15,2013-05-03 16:39:00,
2013-05-03 12:40:00,59.9,54.7,30.22,SSE,162,5.0,5.0,83,0.00,,,0.01,Wunderground v.1.15,2013-05-03 16:40:00,
2013-05-03 12:43:00,60.0,54.8,30.22,SSW,199,4.0,17.0,83,0.00,,,0.01,Wunderground v.1.15,2013-05-03 16:43:00,
2013-05-03 12:44:00,60.0,54.8,30.22,SE,142,4.0,17.0,83,0.00,,,0.01,Wunderground v.1.15,2013-05-03 16:44:00,
2013-05-03 12:45:00,59.9,54.4,30.22,SW,236,4.0,17.0,82,0.00,,,0.01,Wunderground v.1.15,2013-05-03 16:45:00,
2013-05-03 12:49:00,59.9,54.4,30.22,SSE,159,5.0,17.0,82,0.00,,,0.01,Wunderground v.1.15,2013-05-03 16:49:00,
2013-05-03 12:52:00,59.9,54.4,30.22,West,263,6.0,17.0,82,0.00,,,0.01,Wunderground v.1.15,2013-05-03 16:52:00,
2013-05-03 12:53:00,59.9,54.4,30.22,SW,229,7.0,17.0,82,0.00,,,0.01,Wunderground v.1.15,2013-05-03 16:53:00,
2013-05-03 12:55:00,60.1,54.6,30.21,SW,228,6.0,17.0,82,0.00,,,0.01,Wunderground v.1.15,2013-05-03 16:55:00,
2013-05-03 12:57:00,60.1,54.2,30.21,SW,215,6.0,17.0,81,0.00,,,0.01,Wunderground v.1.15,2013-05-03 16:57:00,
2013-05-03 12:58:00,60.0,54.2,30.22,SW,235,7.0,17.0,81,0.00,,,0.01,Wunderground v.1.15,2013-05-03 16:58:00,
2013-05-03 13:02:00,59.9,54.4,30.21,WSW,245,6.0,17.0,82,0.00,,,0.01,Wunderground v.1.15,2013-05-03 17:02:00,
2013-05-03 13:03:00,59.9,54.7,30.21,WSW,239,6.0,17.0,83,0.00,,,0.01,Wunderground v.1.15,2013-05-03 17:03:00,
2013-05-03 13:06:00,59.8,54.6,30.21,SSW,205,6.0,17.0,83,0.00,,,0.01,Wunderground v.1.15,2013-05-03 17:06:00,
2013-05-03 13:08:00,59.7,54.5,30.21,WSW,250,6.0,17.0,83,0.00,,,0.01,Wunderground v.1.15,2013-05-03 17:08:00,
2013-05-03 13:09:00,59.7,54.5,30.21,SW,235,6.0,6.0,83,0.00,,,0.01,Wunderground v.1.15,2013-05-03 17:09:00,
2013-05-03 13:10:00,59.7,54.5,30.21,NNW,335,6.0,17.0,83,0.00,,,0.01,Wunderground v.1.15,2013-05-03 17:10:00,
2013-05-03 13:11:00,59.7,54.9,30.22,SE,134,5.0,17.0,84,0.00,,,0.01,Wunderground v.1.15,2013-05-03 17:11:00,
2013-05-03 13:14:00,59.8,55.0,30.21,West,259,4.0,17.0,84,0.00,,,0.01,Wunderground v.1.15,2013-05-03 17:14:00,
2013-05-03 13:17:00,59.7,54.5,30.21,NNW,331,5.0,17.0,83,0.00,,,0.01,Wunderground v.1.15,2013-05-03 17:17:00,
2013-05-03 13:18:00,59.6,54.8,30.21,West,281,5.0,17.0,84,0.00,,,0.01,Wunderground v.1.15,2013-05-03 17:18:00,
2013-05-03 13:23:00,59.7,54.5,30.21,West,262,5.0,17.0,83,0.00,,,0.01,Wunderground v.1.15,2013-05-03 17:23:00,
2013-05-03 13:25:00,59.6,54.8,30.21,SW,221,5.0,17.0,84,0.00,,,0.01,Wunderground v.1.15,2013-05-03 17:25:00,
2013-05-03 13:26:00,59.7,54.9,30.21,West,264,4.0,17.0,84,0.00,,,0.01,Wunderground v.1.15,2013-05-03 17:26:00,
2013-05-03 13:30:00,59.5,54.7,30.21,NW,319,4.0,4.0,84,0.00,,,0.01,Wunderground v.1.15,2013-05-03 17:30:00,
2013-05-03 13:31:00,59.5,54.7,30.21,NW,316,4.0,17.0,84,0.00,,,0.01,Wunderground v.1.15,2013-05-03 17:31:00,
2013-05-03 13:33:00,59.5,54.7,30.21,West,278,4.0,17.0,84,0.00,,,0.01,Wunderground v.1.15,2013-05-03 17:33:00,
2013-05-03 13:34:00,59.4,54.6,30.21,South,171,4.0,17.0,84,0.00,,,0.01,Wunderground v.1.15,2013-05-03 17:34:00,
2013-05-03 13:36:00,59.4,54.9,30.21,SSW,193,4.0,17.0,85,0.00,,,0.01,Wunderground v.1.15,2013-05-03 17:36:00,
2013-05-03 13:39:00,59.3,54.8,30.21,SW,232,4.0,17.0,85,0.00,,,0.01,Wunderground v.1.15,2013-05-03 17:39:00,
2013-05-03 13:40:00,59.2,55.0,30.21,WSW,256,4.0,17.0,86,0.00,,,0.01,Wunderground v.1.15,2013-05-03 17:40:00,
2013-05-03 13:45:00,58.9,55.4,30.21,ESE,116,3.0,17.0,88,0.00,,,0.01,Wunderground v.1.15,2013-05-03 17:45:00,
2013-05-03 13:46:00,58.9,55.4,30.21,West,277,3.0,17.0,88,0.00,,,0.01,Wunderground v.1.15,2013-05-03 17:46:00,
2013-05-03 13:47:00,58.8,54.9,30.21,WSW,246,4.0,17.0,87,0.00,,,0.01,Wunderground v.1.15,2013-05-03 17:47:00,
2013-05-03 13:51:00,58.3,55.1,30.21,SW,226,3.0,17.0,89,0.00,,,0.01,Wunderground v.1.15,2013-05-03 17:51:00,
2013-05-03 13:52:00,58.3,55.1,30.21,WSW,253,3.0,17.0,89,0.00,,,0.01,Wunderground v.1.15,2013-05-03 17:52:00,
2013-05-03 13:53:00,58.2,55.0,30.21,WSW,250,4.0,17.0,89,0.00,,,0.01,Wunderground v.1.15,2013-05-03 17:53:00,
2013-05-03 13:54:00,58.0,54.8,30.21,SSW,207,4.0,17.0,89,0.00,,,0.01,Wunderground v.1.15,2013-05-03 17:54:00,
2013-05-03 13:56:00,57.8,54.9,30.21,SW,215,4.0,17.0,90,0.00,,,0.02,Wunderground v.1.15,2013-05-03 17:56:00,
2013-05-03 13:57:00,57.6,55.0,30.21,WSW,253,5.0,17.0,91,0.00,,,0.02,Wunderground v.1.15,2013-05-03 17:57:00,
2013-05-03 14:01:00,57.4,55.1,30.21,WSW,245,4.0,17.0,92,0.00,,,0.02,Wunderground v.1.15,2013-05-03 18:01:00,
2013-05-03 14:02:00,57.4,55.1,30.21,SW,215,4.0,17.0,92,0.00,,,0.02,Wunderground v.1.15,2013-05-03 18:02:00,
2013-05-03 14:05:00,57.3,55.0,30.22,NNE,12,3.0,17.0,92,0.00,,,0.02,Wunderground v.1.15,2013-05-03 18:05:00,
2013-05-03 14:09:00,57.3,55.0,30.21,ENE,58,1.0,17.0,92,0.00,,,0.02,Wunderground v.1.15,2013-05-03 18:09:00,
2013-05-03 14:10:00,57.4,55.1,30.21,ENE,65,1.0,17.0,92,0.00,,,0.02,Wunderground v.1.15,2013-05-03 18:10:00,
2013-05-03 14:12:00,57.4,55.4,30.21,SSW,193,1.0,17.0,93,0.00,,,0.02,Wunderground v.1.15,2013-05-03 18:12:00,
2013-05-03 14:15:00,57.3,55.0,30.21,SW,215,2.0,17.0,92,0.00,,,0.02,Wunderground v.1.15,2013-05-03 18:15:00,
2013-05-03 14:16:00,57.2,54.9,30.21,SSW,212,2.0,17.0,92,0.00,,,0.02,Wunderground v.1.15,2013-05-03 18:16:00,
2013-05-03 14:18:00,57.2,54.9,30.21,SW,222,2.0,17.0,92,0.00,,,0.02,Wunderground v.1.15,2013-05-03 18:18:00,
2013-05-03 14:19:00,57.2,54.9,30.22,SSW,200,2.0,17.0,92,0.00,,,0.02,Wunderground v.1.15,2013-05-03 18:19:00,
2013-05-03 14:20:00,57.1,54.8,30.22,South,174,2.0,2.0,92,0.00,,,0.02,Wunderground v.1.15,2013-05-03 18:20:00,
2013-05-03 14:26:00,57.0,54.7,30.21,NE,37,3.0,17.0,92,0.00,,,0.02,Wunderground v.1.15,2013-05-03 18:26:00,
2013-05-03 14:27:00,57.0,55.0,30.21,WSW,245,3.0,17.0,93,0.00,,,0.02,Wunderground v.1.15,2013-05-03 18:27:00,
2013-05-03 14:29:00,56.9,54.6,30.21,SSW,210,3.0,17.0,92,0.00,,,0.02,Wunderground v.1.15,2013-05-03 18:29:00,
2013-05-03 14:30:00,56.9,54.9,30.21,South,172,3.0,3.0,93,0.00,,,0.02,Wunderground v.1.15,2013-05-03 18:30:00,
2013-05-03 14:31:00,56.9,54.9,30.21,SSE,151,3.0,17.0,93,0.00,,,0.02,Wunderground v.1.15,2013-05-03 18:31:00,
2013-05-03 14:35:00,57.0,54.7,30.21,SW,221,3.0,17.0,92,0.00,,,0.02,Wunderground v.1.15,2013-05-03 18:35:00,
2013-05-03 14:36:00,57.0,54.7,30.21,WSW,246,3.0,17.0,92,0.00,,,0.02,Wunderground v.1.15,2013-05-03 18:36:00,
2013-05-03 14:37:00,57.1,55.1,30.21,SW,233,3.0,17.0,93,0.00,,,0.02,Wunderground v.1.15,2013-05-03 18:37:00,
2013-05-03 14:39:00,57.2,54.9,30.21,West,259,3.0,17.0,92,0.00,,,0.02,Wunderground v.1.15,2013-05-03 18:39:00,
2013-05-03 14:41:00,57.2,54.9,30.21,SW,218,4.0,17.0,92,0.00,,,0.02,Wunderground v.1.15,2013-05-03 18:41:00,
2013-05-03 14:43:00,57.3,55.0,30.21,WSW,250,4.0,17.0,92,0.00,,,0.02,Wunderground v.1.15,2013-05-03 18:43:00,
2013-05-03 14:45:00,57.5,55.2,30.20,WSW,247,4.0,17.0,92,0.00,,,0.02,Wunderground v.1.15,2013-05-03 18:45:00,
2013-05-03 14:47:00,57.7,55.4,30.20,SSW,207,4.0,17.0,92,0.00,,,0.02,Wunderground v.1.15,2013-05-03 18:47:00,
2013-05-03 14:48:00,57.7,55.1,30.20,SW,226,4.0,17.0,91,0.00,,,0.02,Wunderground v.1.15,2013-05-03 18:48:00,
2013-05-03 14:49:00,57.9,55.6,30.20,SE,128,4.0,17.0,92,0.00,,,0.02,Wunderground v.1.15,2013-05-03 18:49:00,
2013-05-03 14:52:00,58.4,55.8,30.19,SSE,167,4.0,17.0,91,0.00,,,0.02,Wunderground v.1.15,2013-05-03 18:52:00,
2013-05-03 14:54:00,58.8,55.9,30.19,SW,226,4.0,17.0,90,0.00,,,0.02,Wunderground v.1.15,2013-05-03 18:54:00,
2013-05-03 14:56:00,58.9,55.4,30.19,WSW,243,5.0,17.0,88,0.00,,,0.02,Wunderground v.1.15,2013-05-03 18:56:00,
2013-05-03 14:57:00,59.0,55.8,30.19,WSW,242,4.0,17.0,89,0.00,,,0.02,Wunderground v.1.15,2013-05-03 18:57:00,
2013-05-03 15:00:00,59.2,55.6,30.19,SW,232,5.0,17.0,88,0.00,,,0.02,Wunderground v.1.15,2013-05-03 19:00:00,
2013-05-03 15:01:00,59.2,55.6,30.19,SW,230,5.0,17.0,88,0.00,,,0.02,Wunderground v.1.15,2013-05-03 19:01:00,
2013-05-03 15:02:00,59.2,55.3,30.19,SSW,212,5.0,17.0,87,0.00,,,0.02,Wunderground v.1.15,2013-05-03 19:02:00,
2013-05-03 15:05:00,59.3,55.7,30.18,South,173,5.0,17.0,88,0.00,,,0.02,Wunderground v.1.15,2013-05-03 19:05:00,
2013-05-03 15:07:00,59.8,56.6,30.18,WSW,255,5.0,17.0,89,0.00,,,0.02,Wunderground v.1.15,2013-05-03 19:07:00,
2013-05-03 15:12:00,60.2,55.7,30.18,WSW,243,6.0,17.0,85,0.00,,,0.02,Wunderground v.1.15,2013-05-03 19:12:00,
2013-05-03 15:15:00,60.6,56.1,30.18,WSW,242,5.0,17.0,85,0.00,,,0.02,Wunderground v.1.15,2013-05-03 19:15:00,
2013-05-03 15:17:00,60.9,55.7,30.18,SW,226,6.0,17.0,83,0.00,,,0.02,Wunderground v.1.15,2013-05-03 19:17:00,
2013-05-03 15:18:00,61.0,56.1,30.18,WSW,242,5.0,17.0,84,0.00,,,0.02,Wunderground v.1.15,2013-05-03 19:18:00,
2013-05-03 15:20:00,61.1,56.6,30.19,SSW,200,4.0,17.0,85,0.00,,,0.02,Wunderground v.1.15,2013-05-03 19:20:00,
2013-05-03 15:23:00,61.4,56.2,30.19,East,84,4.0,17.0,83,0.00,,,0.02,Wunderground v.1.15,2013-05-03 19:23:00,
2013-05-03 15:24:00,61.4,56.2,30.19,West,259,4.0,17.0,83,0.00,,,0.02,Wunderground v.1.15,2013-05-03 19:24:00,
2013-05-03 15:25:00,61.4,56.2,30.19,SW,222,4.0,17.0,83,0.00,,,0.02,Wunderground v.1.15,2013-05-03 19:25:00,
2013-05-03 15:29:00,60.9,55.4,30.19,NNW,332,4.0,17.0,82,0.00,,,0.02,Wunderground v.1.15,2013-05-03 19:29:00,
2013-05-03 15:30:00,60.9,55.7,30.19,WSW,256,4.0,4.0,83,0.00,,,0.02,Wunderground v.1.15,2013-05-03 19:30:00,
2013-05-03 15:32:00,60.9,56.0,30.19,SSW,195,4.0,17.0,84,0.00,,,0.02,Wunderground v.1.15,2013-05-03 19:32:00,
2013-05-03 15:34:00,60.8,55.3,30.19,WSW,253,4.0,17.0,82,0.00,,,0.02,Wunderground v.1.15,2013-05-03 19:34:00,
2013-05-03 15:36:00,60.7,55.5,30.19,SSE,167,4.0,17.0,83,0.00,,,0.02,Wunderground v.1.15,2013-05-03 19:36:00,
2013-05-03 15:38:00,60.7,55.5,30.19,SW,226,4.0,17.0,83,0.00,,,0.02,Wunderground v.1.15,2013-05-03 19:38:00,
2013-05-03 15:40:00,60.8,55.9,30.19,NNW,331,4.0,4.0,84,0.00,,,0.02,Wunderground v.1.15,2013-05-03 19:40:00,
2013-05-03 15:42:00,60.8,55.6,30.18,SSE,152,4.0,17.0,83,0.00,,,0.02,Wunderground v.1.15,2013-05-03 19:42:00,
2013-05-03 15:44:00,60.9,55.7,30.18,SW,235,4.0,17.0,83,0.00,,,0.02,Wunderground v.1.15,2013-05-03 19:44:00,
2013-05-03 15:49:00,61.1,55.9,30.18,WSW,240,4.0,17.0,83,0.00,,,0.02,Wunderground v.1.15,2013-05-03 19:49:00,
2013-05-03 15:51:00,61.2,56.0,30.18,West,276,4.0,17.0,83,0.00,,,0.02,Wunderground v.1.15,2013-05-03 19:51:00,
2013-05-03 15:52:00,61.2,55.7,30.18,WNW,287,4.0,17.0,82,0.00,,,0.02,Wunderground v.1.15,2013-05-03 19:52:00,
2013-05-03 15:53:00,61.3,56.1,30.18,WSW,252,4.0,17.0,83,0.00,,,0.02,Wunderground v.1.15,2013-05-03 19:53:00,
2013-05-03 15:54:00,61.4,56.2,30.17,WSW,238,4.0,17.0,83,0.00,,,0.02,Wunderground v.1.15,2013-05-03 19:54:00,
2013-05-03 15:59:00,62.0,56.4,30.17,WNW,287,4.0,17.0,82,0.00,,,0.02,Wunderground v.1.15,2013-05-03 19:59:00,
2013-05-03 16:02:00,62.4,56.5,30.17,WSW,250,3.0,17.0,81,0.00,,,0.02,Wunderground v.1.15,2013-05-03 20:02:00,
2013-05-03 16:04:00,62.5,56.2,30.17,SW,226,3.0,17.0,80,0.00,,,0.02,Wunderground v.1.15,2013-05-03 20:04:00,
2013-05-03 16:05:00,62.5,56.6,30.17,WSW,245,4.0,17.0,81,0.00,,,0.02,Wunderground v.1.15,2013-05-03 20:05:00,
2013-05-03 16:06:00,62.5,56.6,30.17,SW,229,3.0,17.0,81,0.00,,,0.02,Wunderground v.1.15,2013-05-03 20:06:00,
2013-05-03 16:07:00,62.5,56.6,30.17,WSW,245,4.0,17.0,81,0.00,,,0.02,Wunderground v.1.15,2013-05-03 20:07:00,
2013-05-03 16:10:00,62.5,56.6,30.17,WSW,253,4.0,17.0,81,0.00,,,0.02,Wunderground v.1.15,2013-05-03 20:10:00,
2013-05-03 16:11:00,62.5,56.2,30.17,WSW,238,4.0,17.0,80,0.00,,,0.02,Wunderground v.1.15,2013-05-03 20:11:00,
2013-05-03 16:12:00,62.5,56.6,30.17,SW,221,4.0,17.0,81,0.00,,,0.02,Wunderground v.1.15,2013-05-03 20:12:00,
2013-05-03 16:13:00,62.4,56.1,30.17,WNW,297,4.0,17.0,80,0.00,,,0.02,Wunderground v.1.15,2013-05-03 20:13:00,
2013-05-03 16:16:00,62.6,56.7,30.16,NW,321,4.0,17.0,81,0.00,,,0.02,Wunderground v.1.15,2013-05-03 20:16:00,
2013-05-03 16:18:00,62.8,56.5,30.16,SW,232,4.0,17.0,80,0.00,,,0.02,Wunderground v.1.15,2013-05-03 20:18:00,
2013-05-03 16:19:00,62.8,56.2,30.16,SW,229,4.0,17.0,79,0.00,,,0.02,Wunderground v.1.15,2013-05-03 20:19:00,
2013-05-03 16:20:00,62.8,56.5,30.16,SW,214,4.0,4.0,80,0.00,,,0.02,Wunderground v.1.15,2013-05-03 20:20:00,
2013-05-03 16:22:00,62.8,56.5,30.16,West,267,4.0,17.0,80,0.00,,,0.02,Wunderground v.1.15,2013-05-03 20:22:00,
2013-05-03 16:24:00,62.8,56.5,30.16,West,281,3.0,17.0,80,0.00,,,0.02,Wunderground v.1.15,2013-05-03 20:24:00,
2013-05-03 16:25:00,62.8,56.5,30.16,West,274,4.0,17.0,80,0.00,,,0.02,Wunderground v.1.15,2013-05-03 20:25:00,
2013-05-03 16:28:00,62.8,56.5,30.16,WSW,256,4.0,17.0,80,0.00,,,0.02,Wunderground v.1.15,2013-05-03 20:28:00,
2013-05-03 16:31:00,62.8,56.5,30.16,North,354,4.0,17.0,80,0.00,,,0.02,Wunderground v.1.15,2013-05-03 20:31:00,
2013-05-03 16:33:00,62.8,56.5,30.16,West,276,4.0,17.0,80,0.00,,,0.02,Wunderground v.1.15,2013-05-03 20:33:00,
2013-05-03 16:34:00,62.9,56.6,30.16,SW,229,4.0,17.0,80,0.00,,,0.02,Wunderground v.1.15,2013-05-03 20:34:00,
2013-05-03 16:38:00,62.9,56.6,30.16,SSW,212,4.0,17.0,80,0.00,,,0.02,Wunderground v.1.15,2013-05-03 20:38:00,
2013-05-03 16:39:00,62.9,56.3,30.16,West,272,4.0,17.0,79,0.00,,,0.02,Wunderground v.1.15,2013-05-03 20:39:00,
2013-05-03 16:41:00,63.0,56.7,30.16,SSW,196,4.0,17.0,80,0.00,,,0.02,Wunderground v.1.15,2013-05-03 20:41:00,
2013-05-03 16:44:00,63.1,56.8,30.15,SW,222,3.0,17.0,80,0.00,,,0.02,Wunderground v.1.15,2013-05-03 20:44:00,
2013-05-03 16:45:00,63.2,56.9,30.15,West,260,4.0,17.0,80,0.00,,,0.02,Wunderground v.1.15,2013-05-03 20:45:00,
2013-05-03 16:47:00,63.3,56.7,30.15,West,267,4.0,17.0,79,0.00,,,0.02,Wunderground v.1.15,2013-05-03 20:47:00,
2013-05-03 16:49:00,63.3,57.0,30.15,West,262,4.0,17.0,80,0.00,,,0.02,Wunderground v.1.15,2013-05-03 20:49:00,
2013-05-03 16:50:00,63.4,57.1,30.15,SSW,196,3.0,3.0,80,0.00,,,0.02,Wunderground v.1.15,2013-05-03 20:50:00,
2013-05-03 16:51:00,63.4,57.1,30.15,SW,215,3.0,5.0,80,0.00,,,0.02,Wunderground v.1.15,2013-05-03 20:51:00,
2013-05-03 16:55:00,63.3,56.7,30.15,SW,229,3.0,17.0,79,0.00,,,0.02,Wunderground v.1.15,2013-05-03 20:55:00,
2013-05-03 16:56:00,63.3,56.7,30.15,NNW,339,4.0,17.0,79,0.00,,,0.02,Wunderground v.1.15,2013-05-03 20:56:00,
2013-05-03 16:58:00,63.2,56.2,30.15,WSW,248,4.0,17.0,78,0.00,,,0.02,Wunderground v.1.15,2013-05-03 20:58:00,
2013-05-03 16:59:00,63.2,56.2,30.15,WSW,248,4.0,17.0,78,0.00,,,0.02,Wunderground v.1.15,2013-05-03 20:59:00,
2013-05-03 17:03:00,62.9,56.3,30.15,WSW,245,4.0,17.0,79,0.00,,,0.02,Wunderground v.1.15,2013-05-03 21:03:00,
2013-05-03 17:05:00,62.9,56.3,30.15,SW,218,4.0,17.0,79,0.00,,,0.02,Wunderground v.1.15,2013-05-03 21:05:00,
2013-05-03 17:09:00,62.8,56.2,30.15,SW,221,4.0,17.0,79,0.00,,,0.02,Wunderground v.1.15,2013-05-03 21:09:00,
2013-05-03 17:10:00,62.7,56.4,30.15,WSW,253,4.0,4.0,80,0.00,,,0.02,Wunderground v.1.15,2013-05-03 21:10:00,
2013-05-03 17:13:00,62.7,56.4,30.15,WNW,287,3.0,17.0,80,0.00,,,0.02,Wunderground v.1.15,2013-05-03 21:13:00,
2013-05-03 17:15:00,62.6,56.3,30.15,West,260,3.0,17.0,80,0.00,,,0.02,Wunderground v.1.15,2013-05-03 21:15:00,
2013-05-03 17:17:00,62.5,56.2,30.15,SW,225,3.0,17.0,80,0.00,,,0.02,Wunderground v.1.15,2013-05-03 21:17:00,
2013-05-03 17:18:00,62.5,56.6,30.15,WNW,287,3.0,17.0,81,0.00,,,0.02,Wunderground v.1.15,2013-05-03 21:18:00,
2013-05-03 17:19:00,62.4,56.5,30.15,WSW,249,3.0,17.0,81,0.00,,,0.02,Wunderground v.1.15,2013-05-03 21:19:00,
2013-05-03 17:24:00,62.2,56.6,30.15,ENE,77,3.0,17.0,82,0.00,,,0.02,Wunderground v.1.15,2013-05-03 21:24:00,
2013-05-03 17:25:00,62.1,56.5,30.15,WSW,238,3.0,17.0,82,0.00,,,0.02,Wunderground v.1.15,2013-05-03 21:25:00,
2013-05-03 17:26:00,62.1,56.2,30.15,WSW,248,2.0,17.0,81,0.00,,,0.02,Wunderground v.1.15,2013-05-03 21:26:00,
2013-05-03 17:30:00,62.1,56.2,30.15,WNW,287,2.0,2.0,81,0.00,,,0.02,Wunderground v.1.15,2013-05-03 21:30:00,
2013-05-03 17:31:00,62.1,56.2,30.15,SW,236,2.0,7.0,81,0.00,,,0.02,Wunderground v.1.15,2013-05-03 21:31:00,
2013-05-03 17:35:00,62.1,55.9,30.15,SW,236,2.0,17.0,80,0.00,,,0.02,Wunderground v.1.15,2013-05-03 21:35:00,
2013-05-03 17:37:00,62.2,56.0,30.15,SW,215,3.0,17.0,80,0.00,,,0.02,Wunderground v.1.15,2013-05-03 21:37:00,
2013-05-03 17:40:00,62.3,55.7,30.15,WSW,252,3.0,17.0,79,0.00,,,0.02,Wunderground v.1.15,2013-05-03 21:40:00,
2013-05-03 17:42:00,62.3,55.7,30.15,WSW,243,3.0,17.0,79,0.00,,,0.02,Wunderground v.1.15,2013-05-03 21:42:00,
2013-05-03 17:45:00,62.4,55.1,30.15,SW,218,3.0,17.0,77,0.00,,,0.02,Wunderground v.1.15,2013-05-03 21:45:00,
2013-05-03 17:48:00,62.4,55.1,30.15,WSW,253,4.0,17.0,77,0.00,,,0.02,Wunderground v.1.15,2013-05-03 21:48:00,
2013-05-03 17:49:00,62.4,55.1,30.15,NNW,343,4.0,4.0,77,0.00,,,0.02,Wunderground v.1.15,2013-05-03 21:49:00,
2013-05-03 17:50:00,62.4,55.1,30.15,SW,215,4.0,8.0,77,0.00,,,0.02,Wunderground v.1.15,2013-05-03 21:50:00,
2013-05-03 17:54:00,62.4,55.1,30.15,West,262,5.0,17.0,77,0.00,,,0.02,Wunderground v.1.15,2013-05-03 21:54:00,
2013-05-03 17:55:00,62.4,55.4,30.15,West,264,4.0,17.0,78,0.00,,,0.02,Wunderground v.1.15,2013-05-03 21:55:00,
2013-05-03 17:57:00,62.4,55.1,30.15,South,189,3.0,17.0,77,0.00,,,0.02,Wunderground v.1.15,2013-05-03 21:57:00,
2013-05-03 17:59:00,62.3,55.0,30.15,NNE,27,3.0,3.0,77,0.00,,,0.02,Wunderground v.1.15,2013-05-03 21:59:00,
2013-05-03 18:00:00,62.3,55.4,30.16,WSW,253,3.0,17.0,78,0.00,,,0.02,Wunderground v.1.15,2013-05-03 22:00:00,
2013-05-03 18:03:00,61.8,55.9,30.16,NW,311,3.0,17.0,81,0.00,,,0.03,Wunderground v.1.15,2013-05-03 22:03:00,
2013-05-03 18:06:00,61.1,56.2,30.16,WSW,256,4.0,17.0,84,0.00,,,0.03,Wunderground v.1.15,2013-05-03 22:06:00,
2013-05-03 18:07:00,60.9,56.0,30.15,NE,39,4.0,17.0,84,0.00,,,0.03,Wunderground v.1.15,2013-05-03 22:07:00,
2013-05-03 18:08:00,60.7,56.2,30.15,NW,316,3.0,17.0,85,0.00,,,0.03,Wunderground v.1.15,2013-05-03 22:08:00,
2013-05-03 18:10:00,60.4,55.9,30.15,NE,50,3.0,17.0,85,0.00,,,0.03,Wunderground v.1.15,2013-05-03 22:10:00,
2013-05-03 18:11:00,60.3,56.1,30.15,SW,218,3.0,17.0,86,0.00,,,0.03,Wunderground v.1.15,2013-05-03 22:11:00,
2013-05-03 18:12:00,60.2,56.0,30.15,SW,217,3.0,17.0,86,0.00,,,0.03,Wunderground v.1.15,2013-05-03 22:12:00,
2013-05-03 18:16:00,59.9,56.0,30.15,WSW,247,2.0,17.0,87,0.00,,,0.03,Wunderground v.1.15,2013-05-03 22:16:00,
2013-05-03 18:19:00,59.9,55.7,30.15,WSW,239,2.0,17.0,86,0.00,,,0.03,Wunderground v.1.15,2013-05-03 22:19:00,
2013-05-03 18:20:00,59.9,55.7,30.15,WSW,253,3.0,17.0,86,0.00,,,0.03,Wunderground v.1.15,2013-05-03 22:20:00,
2013-05-03 18:22:00,60.0,56.1,30.15,WSW,250,3.0,17.0,87,0.00,,,0.03,Wunderground v.1.15,2013-05-03 22:22:00,
2013-05-03 18:24:00,60.0,56.1,30.15,SW,225,3.0,17.0,87,0.00,,,0.03,Wunderground v.1.15,2013-05-03 22:24:00,
2013-05-03 18:26:00,60.0,56.1,30.15,SW,229,3.0,17.0,87,0.00,,,0.03,Wunderground v.1.15,2013-05-03 22:26:00,
2013-05-03 18:28:00,60.1,56.2,30.15,SW,218,3.0,17.0,87,0.00,,,0.03,Wunderground v.1.15,2013-05-03 22:28:00,
2013-05-03 18:30:00,60.1,56.2,30.15,West,264,2.0,17.0,87,0.00,,,0.03,Wunderground v.1.15,2013-05-03 22:30:00,
2013-05-03 18:32:00,60.2,56.3,30.15,SSW,207,2.0,17.0,87,0.00,,,0.03,Wunderground v.1.15,2013-05-03 22:32:00,
2013-05-03 18:33:00,60.2,56.3,30.15,SW,232,2.0,17.0,87,0.00,,,0.03,Wunderground v.1.15,2013-05-03 22:33:00,
2013-05-03 18:34:00,60.3,56.1,30.15,SW,222,2.0,17.0,86,0.00,,,0.03,Wunderground v.1.15,2013-05-03 22:34:00,
2013-05-03 18:37:00,60.3,56.1,30.15,West,277,2.0,17.0,86,0.00,,,0.03,Wunderground v.1.15,2013-05-03 22:37:00,
2013-05-03 18:38:00,60.4,56.2,30.15,SSW,210,2.0,17.0,86,0.00,,,0.03,Wunderground v.1.15,2013-05-03 22:38:00,
2013-05-03 18:39:00,60.4,56.2,30.15,NW,308,2.0,17.0,86,0.00,,,0.03,Wunderground v.1.15,2013-05-03 22:39:00,
2013-05-03 18:41:00,60.4,56.2,30.15,SW,218,2.0,17.0,86,0.00,,,0.03,Wunderground v.1.15,2013-05-03 22:41:00,
2013-05-03 18:44:00,60.5,56.3,30.14,WSW,249,2.0,17.0,86,0.00,,,0.03,Wunderground v.1.15,2013-05-03 22:44:00,
2013-05-03 18:45:00,60.5,56.3,30.14,WSW,253,1.0,17.0,86,0.00,,,0.03,Wunderground v.1.15,2013-05-03 22:45:00,
2013-05-03 18:46:00,60.6,56.4,30.15,West,267,1.0,17.0,86,0.00,,,0.03,Wunderground v.1.15,2013-05-03 22:46:00,
2013-05-03 18:47:00,60.6,56.1,30.15,WSW,246,1.0,17.0,85,0.00,,,0.03,Wunderground v.1.15,2013-05-03 22:47:00,
2013-05-03 18:50:00,60.6,56.4,30.15,SW,226,1.0,17.0,86,0.00,,,0.03,Wunderground v.1.15,2013-05-03 22:50:00,
2013-05-03 18:51:00,60.6,56.1,30.15,SW,226,1.0,17.0,85,0.00,,,0.03,Wunderground v.1.15,2013-05-03 22:51:00,
2013-05-03 18:52:00,60.6,56.4,30.15,WSW,243,1.0,17.0,86,0.00,,,0.03,Wunderground v.1.15,2013-05-03 22:52:00,
2013-05-03 18:54:00,60.6,56.4,30.15,NE,36,1.0,17.0,86,0.00,,,0.03,Wunderground v.1.15,2013-05-03 22:54:00,
2013-05-03 18:55:00,60.5,56.3,30.15,ENE,76,1.0,17.0,86,0.00,,,0.03,Wunderground v.1.15,2013-05-03 22:55:00,
2013-05-03 18:57:00,60.5,56.3,30.15,SE,134,1.0,17.0,86,0.00,,,0.03,Wunderground v.1.15,2013-05-03 22:57:00,
2013-05-03 18:59:00,60.5,56.3,30.15,WSW,248,1.0,17.0,86,0.00,,,0.03,Wunderground v.1.15,2013-05-03 22:59:00,
2013-05-03 19:00:00,60.5,56.3,30.15,SW,225,1.0,17.0,86,0.00,,,0.03,Wunderground v.1.15,2013-05-03 23:00:00,
2013-05-03 19:02:00,60.5,56.3,30.15,North,359,1.0,17.0,86,0.00,,,0.04,Wunderground v.1.15,2013-05-03 23:02:00,
2013-05-03 19:04:00,60.4,56.5,30.15,North,360,1.0,17.0,87,0.00,,,0.04,Wunderground v.1.15,2013-05-03 23:04:00,
2013-05-03 19:05:00,60.3,56.4,30.15,SW,229,1.0,17.0,87,0.00,,,0.04,Wunderground v.1.15,2013-05-03 23:05:00,
2013-05-03 19:06:00,60.2,56.3,30.16,ESE,115,1.0,17.0,87,0.00,,,0.04,Wunderground v.1.15,2013-05-03 23:06:00,
2013-05-03 19:09:00,59.8,56.2,30.16,NW,316,2.0,17.0,88,0.00,,,0.04,Wunderground v.1.15,2013-05-03 23:09:00,
2013-05-03 19:10:00,59.6,56.4,30.16,NW,308,2.0,2.0,89,0.08,,,0.05,Wunderground v.1.15,2013-05-03 23:10:00,
2013-05-03 19:11:00,59.5,56.3,30.16,WSW,256,2.0,17.0,89,0.08,,,0.05,Wunderground v.1.15,2013-05-03 23:11:00,
2013-05-03 19:13:00,59.2,56.3,30.16,WSW,248,2.0,17.0,90,0.08,,,0.05,Wunderground v.1.15,2013-05-03 23:13:00,
2013-05-03 19:15:00,59.0,56.4,30.16,ESE,115,2.0,17.0,91,0.08,,,0.05,Wunderground v.1.15,2013-05-03 23:15:00,
2013-05-03 19:17:00,58.8,56.2,30.16,North,11,2.0,17.0,91,0.08,,,0.05,Wunderground v.1.15,2013-05-03 23:17:00,
2013-05-03 19:19:00,58.7,56.1,30.16,SW,215,2.0,17.0,91,0.06,,,0.05,Wunderground v.1.15,2013-05-03 23:19:00,
2013-05-03 19:21:00,58.6,56.0,30.16,NW,304,2.0,17.0,91,0.05,,,0.05,Wunderground v.1.15,2013-05-03 23:21:00,
2013-05-03 19:24:00,58.4,55.8,30.16,SSE,151,2.0,17.0,91,0.04,,,0.05,Wunderground v.1.15,2013-05-03 23:24:00,
2013-05-03 19:25:00,58.4,55.8,30.16,WSW,256,2.0,17.0,91,0.04,,,0.05,Wunderground v.1.15,2013-05-03 23:25:00,
2013-05-03 19:29:00,58.2,55.6,30.16,West,273,2.0,17.0,91,0.00,,,0.05,Wunderground v.1.15,2013-05-03 23:29:00,
2013-05-03 19:31:00,58.1,55.5,30.16,SW,232,2.0,17.0,91,0.00,,,0.05,Wunderground v.1.15,2013-05-03 23:31:00,
2013-05-03 19:33:00,58.1,55.5,30.16,WSW,253,2.0,17.0,91,0.00,,,0.05,Wunderground v.1.15,2013-05-03 23:33:00,
2013-05-03 19:35:00,58.0,55.4,30.16,WSW,238,2.0,17.0,91,0.00,,,0.05,Wunderground v.1.15,2013-05-03 23:35:00,
2013-05-03 19:38:00,58.0,55.4,30.16,SW,235,2.0,17.0,91,0.00,,,0.05,Wunderground v.1.15,2013-05-03 23:38:00,
2013-05-03 19:39:00,57.9,55.6,30.16,WSW,256,2.0,17.0,92,0.00,,,0.05,Wunderground v.1.15,2013-05-03 23:39:00,
2013-05-03 19:40:00,57.9,55.6,30.16,WSW,256,2.0,2.0,92,0.00,,,0.05,Wunderground v.1.15,2013-05-03 23:40:00,
2013-05-03 19:42:00,57.9,55.6,30.16,SSW,200,2.0,17.0,92,0.00,,,0.05,Wunderground v.1.15,2013-05-03 23:42:00,
2013-05-03 19:44:00,57.8,55.5,30.16,SW,232,2.0,17.0,92,0.00,,,0.05,Wunderground v.1.15,2013-05-03 23:44:00,
2013-05-03 19:45:00,57.8,55.5,30.16,West,267,2.0,17.0,92,0.00,,,0.05,Wunderground v.1.15,2013-05-03 23:45:00,
2013-05-03 19:47:00,57.8,55.5,30.16,West,262,1.0,17.0,92,0.00,,,0.05,Wunderground v.1.15,2013-05-03 23:47:00,
2013-05-03 19:51:00,57.8,55.5,30.16,SW,235,2.0,17.0,92,0.00,,,0.05,Wunderground v.1.15,2013-05-03 23:51:00,
2013-05-03 19:54:00,57.7,55.4,30.16,SSW,200,1.0,17.0,92,0.00,,,0.05,Wunderground v.1.15,2013-05-03 23:54:00,
2013-05-03 19:55:00,57.7,55.4,30.16,SSW,201,1.0,17.0,92,0.00,,,0.05,Wunderground v.1.15,2013-05-03 23:55:00,
2013-05-03 19:56:00,57.7,55.4,30.16,SW,220,1.0,17.0,92,0.00,,,0.05,Wunderground v.1.15,2013-05-03 23:56:00,
2013-05-03 19:57:00,57.7,55.4,30.16,SSW,197,1.0,17.0,92,0.00,,,0.05,Wunderground v.1.15,2013-05-03 23:57:00,
2013-05-03 20:00:00,57.7,55.4,30.16,WSW,250,1.0,17.0,92,0.00,,,0.05,Wunderground v.1.15,2013-05-04 00:00:00,
2013-05-03 20:02:00,57.7,55.4,30.16,SW,226,1.0,17.0,92,0.00,,,0.05,Wunderground v.1.15,2013-05-04 00:02:00,
2013-05-03 20:04:00,57.7,55.4,30.16,SW,221,1.0,17.0,92,0.00,,,0.05,Wunderground v.1.15,2013-05-04 00:04:00,
2013-05-03 20:05:00,57.7,55.4,30.16,SW,235,1.0,17.0,92,0.00,,,0.05,Wunderground v.1.15,2013-05-04 00:05:00,
2013-05-03 20:06:00,57.7,55.4,30.16,SW,221,1.0,17.0,92,0.00,,,0.05,Wunderground v.1.15,2013-05-04 00:06:00,
2013-05-03 20:07:00,57.7,55.4,30.16,WSW,238,1.0,17.0,92,0.00,,,0.05,Wunderground v.1.15,2013-05-04 00:07:00,
2013-05-03 20:12:00,57.7,55.4,30.16,SSE,162,1.0,17.0,92,0.00,,,0.05,Wunderground v.1.15,2013-05-04 00:12:00,
2013-05-03 20:13:00,57.7,55.4,30.16,South,174,2.0,17.0,92,0.00,,,0.05,Wunderground v.1.15,2013-05-04 00:13:00,
2013-05-03 20:15:00,57.7,55.4,30.16,WSW,256,2.0,17.0,92,0.00,,,0.05,Wunderground v.1.15,2013-05-04 00:15:00,
2013-05-03 20:17:00,57.7,55.4,30.15,SW,228,2.0,17.0,92,0.00,,,0.05,Wunderground v.1.15,2013-05-04 00:17:00,
2013-05-03 20:18:00,57.7,55.4,30.16,SSW,203,2.0,17.0,92,0.00,,,0.05,Wunderground v.1.15,2013-05-04 00:18:00,
2013-05-03 20:21:00,57.8,55.2,30.15,SSW,203,2.0,17.0,91,0.00,,,0.05,Wunderground v.1.15,2013-05-04 00:21:00,
2013-05-03 20:22:00,57.9,55.3,30.15,SW,226,2.0,17.0,91,0.00,,,0.05,Wunderground v.1.15,2013-05-04 00:22:00,
2013-05-03 20:23:00,57.9,55.3,30.15,SW,215,3.0,17.0,91,0.00,,,0.05,Wunderground v.1.15,2013-05-04 00:23:00,
2013-05-03 20:25:00,57.9,55.3,30.15,SW,221,2.0,17.0,91,0.00,,,0.05,Wunderground v.1.15,2013-05-04 00:25:00,
2013-05-03 20:28:00,57.9,55.3,30.15,WSW,256,2.0,17.0,91,0.00,,,0.05,Wunderground v.1.15,2013-05-04 00:28:00,
2013-05-03 20:29:00,57.9,55.3,30.15,South,184,2.0,17.0,91,0.00,,,0.05,Wunderground v.1.15,2013-05-04 00:29:00,
2013-05-03 20:30:00,57.9,55.3,30.15,SW,233,2.0,17.0,91,0.00,,,0.05,Wunderground v.1.15,2013-05-04 00:30:00,
2013-05-03 20:31:00,57.9,55.3,30.15,WSW,247,2.0,17.0,91,0.00,,,0.05,Wunderground v.1.15,2013-05-04 00:31:00,
2013-05-03 20:33:00,57.9,55.3,30.15,SSW,197,2.0,17.0,91,0.00,,,0.05,Wunderground v.1.15,2013-05-04 00:33:00,
2013-05-03 20:35:00,57.9,55.3,30.15,West,260,3.0,17.0,91,0.00,,,0.05,Wunderground v.1.15,2013-05-04 00:35:00,
2013-05-03 20:36:00,58.0,55.4,30.15,WSW,256,3.0,17.0,91,0.00,,,0.05,Wunderground v.1.15,2013-05-04 00:36:00,
2013-05-03 20:37:00,58.0,55.4,30.16,WSW,241,3.0,17.0,91,0.00,,,0.05,Wunderground v.1.15,2013-05-04 00:37:00,
2013-05-03 20:38:00,58.0,55.4,30.15,WSW,250,3.0,17.0,91,0.00,,,0.05,Wunderground v.1.15,2013-05-04 00:38:00,
2013-05-03 20:40:00,58.0,55.4,30.15,SW,215,3.0,17.0,91,0.00,,,0.05,Wunderground v.1.15,2013-05-04 00:40:00,
2013-05-03 20:43:00,58.0,55.4,30.16,West,266,3.0,17.0,91,0.00,,,0.05,Wunderground v.1.15,2013-05-04 00:43:00,
2013-05-03 20:45:00,58.0,55.4,30.16,WSW,240,3.0,17.0,91,0.00,,,0.05,Wunderground v.1.15,2013-05-04 00:45:00,
2013-05-03 20:47:00,58.0,55.4,30.16,WSW,246,3.0,17.0,91,0.00,,,0.05,Wunderground v.1.15,2013-05-04 00:47:00,
2013-05-03 20:48:00,58.0,55.4,30.16,WSW,242,2.0,17.0,91,0.00,,,0.05,Wunderground v.1.15,2013-05-04 00:48:00,
2013-05-03 20:50:00,58.0,55.4,30.16,WSW,253,2.0,2.0,91,0.00,,,0.05,Wunderground v.1.15,2013-05-04 00:50:00,
2013-05-03 20:52:00,58.0,55.4,30.16,WSW,257,2.0,17.0,91,0.00,,,0.05,Wunderground v.1.15,2013-05-04 00:52:00,
2013-05-03 20:54:00,58.0,55.4,30.16,SW,229,2.0,17.0,91,0.00,,,0.05,Wunderground v.1.15,2013-05-04 00:54:00,
2013-05-03 20:55:00,58.0,55.4,30.16,WSW,253,2.0,17.0,91,0.00,,,0.05,Wunderground v.1.15,2013-05-04 00:55:00,
2013-05-03 20:56:00,58.0,55.4,30.16,SW,235,2.0,17.0,91,0.00,,,0.05,Wunderground v.1.15,2013-05-04 00:56:00,
2013-05-03 20:59:00,58.0,55.4,30.16,SW,226,2.0,17.0,91,0.00,,,0.05,Wunderground v.1.15,2013-05-04 00:59:00,
2013-05-03 21:01:00,58.0,55.4,30.16,WSW,246,2.0,17.0,91,0.00,,,0.05,Wunderground v.1.15,2013-05-04 01:01:00,
2013-05-03 21:03:00,58.0,55.4,30.16,WSW,248,2.0,17.0,91,0.00,,,0.05,Wunderground v.1.15,2013-05-04 01:03:00,
2013-05-03 21:05:00,58.0,55.4,30.16,WSW,250,2.0,17.0,91,0.00,,,0.05,Wunderground v.1.15,2013-05-04 01:05:00,
2013-05-03 21:06:00,58.0,55.4,30.16,SW,222,2.0,17.0,91,0.00,,,0.05,Wunderground v.1.15,2013-05-04 01:06:00,
2013-05-03 21:11:00,58.0,55.4,30.16,WSW,253,1.0,17.0,91,0.00,,,0.05,Wunderground v.1.15,2013-05-04 01:11:00,
2013-05-03 21:12:00,58.0,55.4,30.16,WSW,238,1.0,17.0,91,0.00,,,0.05,Wunderground v.1.15,2013-05-04 01:12:00,
2013-05-03 21:17:00,58.0,55.4,30.16,WSW,245,1.0,17.0,91,0.00,,,0.05,Wunderground v.1.15,2013-05-04 01:17:00,
2013-05-03 21:19:00,58.0,55.4,30.16,WSW,252,1.0,17.0,91,0.00,,,0.05,Wunderground v.1.15,2013-05-04 01:19:00,
2013-05-03 21:20:00,58.0,55.4,30.16,SW,232,1.0,17.0,91,0.00,,,0.05,Wunderground v.1.15,2013-05-04 01:20:00,
2013-05-03 21:23:00,58.1,55.2,30.15,SW,235,2.0,17.0,90,0.00,,,0.05,Wunderground v.1.15,2013-05-04 01:23:00,
2013-05-03 21:24:00,58.1,54.9,30.16,WSW,239,2.0,17.0,89,0.00,,,0.05,Wunderground v.1.15,2013-05-04 01:24:00,
2013-05-03 21:26:00,58.2,54.7,30.15,WSW,258,2.0,17.0,88,0.00,,,0.05,Wunderground v.1.15,2013-05-04 01:26:00,
2013-05-03 21:27:00,58.3,54.8,30.15,SW,218,3.0,17.0,88,0.00,,,0.05,Wunderground v.1.15,2013-05-04 01:27:00,
2013-05-03 21:28:00,58.4,54.5,30.15,WSW,253,3.0,17.0,87,0.00,,,0.05,Wunderground v.1.15,2013-05-04 01:28:00,
2013-05-03 21:29:00,58.4,54.5,30.15,SW,225,3.0,17.0,87,0.00,,,0.05,Wunderground v.1.15,2013-05-04 01:29:00,
2013-05-03 21:33:00,58.6,54.7,30.15,WSW,240,3.0,17.0,87,0.00,,,0.05,Wunderground v.1.15,2013-05-04 01:33:00,
2013-05-03 21:35:00,58.6,54.7,30.15,SW,221,3.0,17.0,87,0.00,,,0.05,Wunderground v.1.15,2013-05-04 01:35:00,
2013-05-03 21:36:00,58.6,54.7,30.15,WSW,242,3.0,17.0,87,0.00,,,0.05,Wunderground v.1.15,2013-05-04 01:36:00,
2013-05-03 21:38:00,58.6,54.7,30.15,WSW,245,2.0,17.0,87,0.00,,,0.05,Wunderground v.1.15,2013-05-04 01:38:00,
2013-05-03 21:41:00,58.6,54.7,30.15,WSW,250,2.0,17.0,87,0.00,,,0.05,Wunderground v.1.15,2013-05-04 01:41:00,
2013-05-03 21:42:00,58.6,55.1,30.15,WSW,239,2.0,17.0,88,0.00,,,0.05,Wunderground v.1.15,2013-05-04 01:42:00,
2013-05-03 21:46:00,58.5,55.0,30.15,SSW,210,2.0,17.0,88,0.00,,,0.05,Wunderground v.1.15,2013-05-04 01:46:00,
2013-05-03 21:47:00,58.5,55.0,30.15,SW,218,1.0,17.0,88,0.00,,,0.05,Wunderground v.1.15,2013-05-04 01:47:00,
2013-05-03 21:50:00,58.5,55.0,30.15,SW,226,2.0,17.0,88,0.00,,,0.05,Wunderground v.1.15,2013-05-04 01:50:00,
2013-05-03 21:51:00,58.5,55.0,30.15,SSW,210,2.0,17.0,88,0.00,,,0.05,Wunderground v.1.15,2013-05-04 01:51:00,
2013-05-03 21:55:00,58.5,55.0,30.15,WSW,237,2.0,17.0,88,0.00,,,0.05,Wunderground v.1.15,2013-05-04 01:55:00,
2013-05-03 21:56:00,58.6,55.1,30.15,West,274,3.0,17.0,88,0.00,,,0.05,Wunderground v.1.15,2013-05-04 01:56:00,
2013-05-03 21:57:00,58.6,55.1,30.15,WSW,256,3.0,17.0,88,0.00,,,0.05,Wunderground v.1.15,2013-05-04 01:57:00,
2013-05-03 21:59:00,58.6,55.1,30.16,South,180,3.0,3.0,88,0.00,,,0.05,Wunderground v.1.15,2013-05-04 01:59:00,
2013-05-03 22:01:00,58.6,55.1,30.16,WSW,240,3.0,17.0,88,0.00,,,0.05,Wunderground v.1.15,2013-05-04 02:01:00,
2013-05-03 22:02:00,58.6,55.1,30.16,SSE,160,3.0,17.0,88,0.00,,,0.05,Wunderground v.1.15,2013-05-04 02:02:00,
2013-05-03 22:04:00,58.6,55.1,30.16,WSW,243,2.0,17.0,88,0.00,,,0.05,Wunderground v.1.15,2013-05-04 02:04:00,
2013-05-03 22:05:00,58.6,55.1,30.16,SSW,205,2.0,17.0,88,0.00,,,0.05,Wunderground v.1.15,2013-05-04 02:05:00,
2013-05-03 22:08:00,58.6,55.1,30.15,SSW,197,2.0,17.0,88,0.00,,,0.05,Wunderground v.1.15,2013-05-04 02:08:00,
2013-05-03 22:13:00,58.6,55.1,30.15,WSW,241,2.0,17.0,88,0.00,,,0.05,Wunderground v.1.15,2013-05-04 02:13:00,
2013-05-03 22:15:00,58.6,55.1,30.15,WSW,253,2.0,17.0,88,0.00,,,0.05,Wunderground v.1.15,2013-05-04 02:15:00,
2013-05-03 22:20:00,58.6,55.1,30.15,SW,226,2.0,17.0,88,0.00,,,0.05,Wunderground v.1.15,2013-05-04 02:20:00,
2013-05-03 22:22:00,58.6,55.1,30.15,West,281,2.0,17.0,88,0.00,,,0.05,Wunderground v.1.15,2013-05-04 02:22:00,
2013-05-03 22:24:00,58.6,55.1,30.15,West,277,2.0,17.0,88,0.00,,,0.05,Wunderground v.1.15,2013-05-04 02:24:00,
2013-05-03 22:26:00,58.6,55.1,30.15,SSW,197,2.0,17.0,88,0.00,,,0.05,Wunderground v.1.15,2013-05-04 02:26:00,
2013-05-03 22:27:00,58.6,54.7,30.15,WSW,255,2.0,17.0,87,0.00,,,0.05,Wunderground v.1.15,2013-05-04 02:27:00,
2013-05-03 22:28:00,58.7,55.2,30.15,NW,319,2.0,17.0,88,0.00,,,0.05,Wunderground v.1.15,2013-05-04 02:28:00,
2013-05-03 22:31:00,58.7,54.8,30.15,SW,218,2.0,5.0,87,0.00,,,0.05,Wunderground v.1.15,2013-05-04 02:31:00,
2013-05-03 22:32:00,58.7,54.8,30.15,WSW,239,3.0,17.0,87,0.00,,,0.05,Wunderground v.1.15,2013-05-04 02:32:00,
2013-05-03 22:33:00,58.7,54.8,30.15,WSW,237,3.0,17.0,87,0.00,,,0.05,Wunderground v.1.15,2013-05-04 02:33:00,
2013-05-03 22:36:00,58.8,54.9,30.15,WSW,240,3.0,17.0,87,0.00,,,0.05,Wunderground v.1.15,2013-05-04 02:36:00,
2013-05-03 22:39:00,58.8,54.9,30.15,WSW,250,2.0,17.0,87,0.00,,,0.05,Wunderground v.1.15,2013-05-04 02:39:00,
2013-05-03 22:40:00,58.8,54.9,30.15,SW,221,3.0,17.0,87,0.00,,,0.05,Wunderground v.1.15,2013-05-04 02:40:00,
2013-05-03 22:42:00,58.9,54.7,30.15,WSW,250,3.0,17.0,86,0.00,,,0.05,Wunderground v.1.15,2013-05-04 02:42:00,
2013-05-03 22:44:00,58.9,54.7,30.15,SSW,211,3.0,17.0,86,0.00,,,0.05,Wunderground v.1.15,2013-05-04 02:44:00,
2013-05-03 22:45:00,58.9,54.7,30.15,SSW,193,3.0,17.0,86,0.00,,,0.05,Wunderground v.1.15,2013-05-04 02:45:00,
2013-05-03 22:46:00,58.9,54.7,30.15,SW,224,3.0,17.0,86,0.00,,,0.05,Wunderground v.1.15,2013-05-04 02:46:00,
2013-05-03 22:48:00,59.0,54.8,30.15,WSW,250,3.0,17.0,86,0.00,,,0.05,Wunderground v.1.15,2013-05-04 02:48:00,
2013-05-03 22:49:00,59.0,54.8,30.15,WSW,238,3.0,17.0,86,0.00,,,0.05,Wunderground v.1.15,2013-05-04 02:49:00,
2013-05-03 22:51:00,59.0,54.8,30.15,West,266,3.0,17.0,86,0.00,,,0.05,Wunderground v.1.15,2013-05-04 02:51:00,
2013-05-03 22:53:00,59.0,54.8,30.15,WSW,248,3.0,17.0,86,0.00,,,0.05,Wunderground v.1.15,2013-05-04 02:53:00,
2013-05-03 22:54:00,59.0,54.8,30.15,SW,215,2.0,17.0,86,0.00,,,0.05,Wunderground v.1.15,2013-05-04 02:54:00,
2013-05-03 22:56:00,59.0,54.5,30.14,SW,228,3.0,17.0,85,0.00,,,0.05,Wunderground v.1.15,2013-05-04 02:56:00,
2013-05-03 22:57:00,59.0,54.5,30.14,WSW,257,3.0,17.0,85,0.00,,,0.05,Wunderground v.1.15,2013-05-04 02:57:00,
2013-05-03 22:59:00,59.1,54.6,30.14,West,262,4.0,17.0,85,0.00,,,0.05,Wunderground v.1.15,2013-05-04 02:59:00,
2013-05-03 23:01:00,59.1,54.6,30.14,WNW,291,4.0,17.0,85,0.00,,,0.05,Wunderground v.1.15,2013-05-04 03:01:00,
2013-05-03 23:02:00,59.1,54.6,30.14,SW,236,4.0,17.0,85,0.00,,,0.05,Wunderground v.1.15,2013-05-04 03:02:00,
2013-05-03 23:03:00,59.2,54.7,30.14,WSW,258,4.0,17.0,85,0.00,,,0.05,Wunderground v.1.15,2013-05-04 03:03:00,
2013-05-03 23:05:00,59.2,54.7,30.14,WSW,238,4.0,17.0,85,0.00,,,0.05,Wunderground v.1.15,2013-05-04 03:05:00,
2013-05-03 23:06:00,59.2,54.4,30.14,SW,225,4.0,17.0,84,0.00,,,0.05,Wunderground v.1.15,2013-05-04 03:06:00,
2013-05-03 23:07:00,59.2,54.4,30.14,WSW,246,4.0,17.0,84,0.00,,,0.05,Wunderground v.1.15,2013-05-04 03:07:00,
2013-05-03 23:10:00,59.2,54.4,30.14,SW,222,4.0,17.0,84,0.00,,,0.05,Wunderground v.1.15,2013-05-04 03:10:00,
2013-05-03 23:12:00,59.3,54.5,30.14,WSW,247,4.0,17.0,84,0.00,,,0.05,Wunderground v.1.15,2013-05-04 03:12:00,
2013-05-03 23:13:00,59.3,54.5,30.14,WSW,250,4.0,17.0,84,0.00,,,0.05,Wunderground v.1.15,2013-05-04 03:13:00,
2013-05-03 23:18:00,59.2,54.4,30.14,SW,226,4.0,17.0,84,0.00,,,0.05,Wunderground v.1.15,2013-05-04 03:18:00,
2013-05-03 23:19:00,59.3,54.1,30.14,WSW,239,4.0,17.0,83,0.00,,,0.05,Wunderground v.1.15,2013-05-04 03:19:00,
2013-05-03 23:21:00,59.3,54.1,30.14,South,188,4.0,17.0,83,0.00,,,0.05,Wunderground v.1.15,2013-05-04 03:21:00,
2013-05-03 23:22:00,59.3,54.1,30.14,SW,236,4.0,17.0,83,0.00,,,0.05,Wunderground v.1.15,2013-05-04 03:22:00,
2013-05-03 23:24:00,59.3,54.1,30.14,WSW,242,4.0,17.0,83,0.00,,,0.05,Wunderground v.1.15,2013-05-04 03:24:00,
2013-05-03 23:26:00,59.3,54.5,30.14,South,169,4.0,17.0,84,0.00,,,0.05,Wunderground v.1.15,2013-05-04 03:26:00,
2013-05-03 23:28:00,59.2,54.0,30.14,WSW,253,3.0,17.0,83,0.00,,,0.05,Wunderground v.1.15,2013-05-04 03:28:00,
2013-05-03 23:29:00,59.3,54.1,30.13,ESE,118,3.0,17.0,83,0.00,,,0.05,Wunderground v.1.15,2013-05-04 03:29:00,
2013-05-03 23:30:00,59.2,54.4,30.13,SW,222,3.0,17.0,84,0.00,,,0.05,Wunderground v.1.15,2013-05-04 03:30:00,
2013-05-03 23:32:00,59.2,54.0,30.13,SW,218,3.0,17.0,83,0.00,,,0.05,Wunderground v.1.15,2013-05-04 03:32:00,
2013-05-03 23:33:00,59.2,54.4,30.13,SW,232,3.0,17.0,84,0.00,,,0.05,Wunderground v.1.15,2013-05-04 03:33:00,
2013-05-03 23:36:00,59.2,54.4,30.13,West,274,3.0,17.0,84,0.00,,,0.05,Wunderground v.1.15,2013-05-04 03:36:00,
2013-05-03 23:38:00,59.2,54.0,30.13,West,260,3.0,17.0,83,0.00,,,0.05,Wunderground v.1.15,2013-05-04 03:38:00,
2013-05-03 23:39:00,59.2,54.0,30.13,SW,220,3.0,17.0,83,0.00,,,0.05,Wunderground v.1.15,2013-05-04 03:39:00,
2013-05-03 23:41:00,59.1,54.3,30.13,SSW,203,3.0,17.0,84,0.00,,,0.05,Wunderground v.1.15,2013-05-04 03:41:00,
2013-05-03 23:44:00,59.1,54.3,30.13,WSW,241,3.0,17.0,84,0.00,,,0.05,Wunderground v.1.15,2013-05-04 03:44:00,
2013-05-03 23:47:00,59.1,54.3,30.13,SSW,197,2.0,17.0,84,0.00,,,0.05,Wunderground v.1.15,2013-05-04 03:47:00,
2013-05-03 23:48:00,59.1,54.3,30.13,WSW,243,2.0,17.0,84,0.00,,,0.05,Wunderground v.1.15,2013-05-04 03:48:00,
2013-05-03 23:49:00,59.0,54.2,30.13,SW,235,2.0,17.0,84,0.00,,,0.05,Wunderground v.1.15,2013-05-04 03:49:00,
2013-05-03 23:51:00,59.0,54.2,30.13,WSW,245,3.0,17.0,84,0.00,,,0.05,Wunderground v.1.15,2013-05-04 03:51:00,
2013-05-03 23:55:00,59.0,54.2,30.13,SW,228,3.0,17.0,84,0.00,,,0.05,Wunderground v.1.15,2013-05-04 03:55:00,
2013-05-03 23:56:00,59.0,54.2,30.13,SW,218,4.0,17.0,84,0.00,,,0.05,Wunderground v.1.15,2013-05-04 03:56:00,
2013-05-03 23:59:00,59.0,54.2,30.13,West,264,3.0,17.0,84,0.00,,,0.05,Wunderground v.1.15,2013-05-04 03:59:00,